Wetterdaten: aktuell Donnerstag, 17.10.2019 16:10
Datum Zeit Temp. Aussen Temp. o. S. Temp +5cm Feuchte Auss Luftdruck Regen Sonnenschein Regendauer Solar Windben Empfang
17.10.2019 16:10 14,9 C 14,4 C 13,9 C 93 % 1010,8 hPa 0,0 l/m 0 min 0 min 79 W/m 6,4 km/h (2 Bft) 100,00 %
17.10.2019 16:08 14,9 C 14,4 C 13,9 C 93 % 1010,7 hPa 0,0 l/m 0 min 0 min 86 W/m 16,1 km/h (3 Bft) 100,00 %
17.10.2019 16:06 14,9 C 14,4 C 13,9 C 93 % 1010,8 hPa 0,0 l/m 0 min 0 min 80 W/m 16,1 km/h (3 Bft) 97,87 %
17.10.2019 16:04 14,9 C 14,4 C 13,9 C 93 % 1010,8 hPa 0,0 l/m 0 min 0 min 92 W/m 12,9 km/h (3 Bft) 97,87 %
17.10.2019 16:02 14,9 C 15,0 C 13,9 C 93 % 1010,7 hPa 0,0 l/m 0 min 0 min 88 W/m 16,1 km/h (3 Bft) 97,87 %
17.10.2019 16:00 14,9 C 14,4 C 13,9 C 93 % 1010,7 hPa 0,0 l/m 0 min 0 min 86 W/m 22,5 km/h (4 Bft) 97,83 %
17.10.2019 15:58 14,9 C 15,0 C 13,9 C 93 % 1010,7 hPa 0,0 l/m 0 min 0 min 123 W/m 19,3 km/h (3 Bft) 100,00 %
17.10.2019 15:56 14,9 C 15,0 C 13,9 C 93 % 1010,8 hPa 0,0 l/m 0 min 0 min 138 W/m 16,1 km/h (3 Bft) 97,87 %
17.10.2019 15:54 15,0 C 15,0 C 13,9 C 92 % 1010,7 hPa 0,0 l/m 0 min 0 min 165 W/m 19,3 km/h (3 Bft) 97,87 %
17.10.2019 15:52 15,0 C 15,0 C 13,9 C 92 % 1010,8 hPa 0,0 l/m 2 min 0 min 196 W/m 22,5 km/h (4 Bft) 97,87 %
17.10.2019 15:50 15,1 C 15,6 C 13,9 C 92 % 1010,9 hPa 0,0 l/m 2 min 0 min 212 W/m 19,3 km/h (3 Bft) 97,87 %
17.10.2019 15:48 15,1 C 15,6 C 14,4 C 92 % 1010,8 hPa 0,0 l/m 2 min 0 min 229 W/m 22,5 km/h (4 Bft) 54,55 %
17.10.2019 15:46 15,1 C 16,1 C 14,4 C 92 % 1010,8 hPa 0,0 l/m 2 min 0 min 230 W/m 19,3 km/h (3 Bft) 97,87 %
17.10.2019 15:44 15,1 C 15,6 C 13,9 C 92 % 1010,9 hPa 0,0 l/m 2 min 0 min 200 W/m 16,1 km/h (3 Bft) 97,87 %
17.10.2019 15:42 15,1 C 14,4 C 13,9 C 92 % 1011,0 hPa 0,0 l/m 0 min 0 min 157 W/m 12,9 km/h (3 Bft) 93,62 %
17.10.2019 15:40 15,2 C 14,4 C 13,9 C 92 % 1011,1 hPa 0,0 l/m 0 min 0 min 118 W/m 16,1 km/h (3 Bft) 95,74 %
17.10.2019 15:38 15,2 C 13,9 C 13,3 C 91 % 1011,1 hPa 0,0 l/m 0 min 0 min 85 W/m 16,1 km/h (3 Bft) 95,65 %
17.10.2019 15:36 15,2 C 13,9 C 13,3 C 91 % 1011,1 hPa 0,0 l/m 0 min 0 min 77 W/m 16,1 km/h (3 Bft) 95,74 %
17.10.2019 15:34 15,2 C 13,9 C 13,3 C 91 % 1011,1 hPa 0,0 l/m 0 min 0 min 75 W/m 6,4 km/h (2 Bft) 97,87 %
17.10.2019 15:32 15,2 C 13,9 C 13,3 C 91 % 1011,2 hPa 0,0 l/m 0 min 0 min 80 W/m 6,4 km/h (2 Bft) 95,74 %
17.10.2019 15:30 15,3 C 13,9 C 13,9 C 91 % 1011,1 hPa 0,0 l/m 0 min 0 min 82 W/m 12,9 km/h (3 Bft) 95,74 %
17.10.2019 15:28 15,3 C 14,4 C 13,9 C 90 % 1011,1 hPa 0,0 l/m 0 min 2 min 93 W/m 16,1 km/h (3 Bft) 95,74 %
17.10.2019 15:26 15,4 C 14,4 C 13,9 C 90 % 1011,1 hPa 0,0 l/m 0 min 0 min 99 W/m 19,3 km/h (3 Bft) 95,65 %
17.10.2019 15:24 15,4 C 14,4 C 13,3 C 90 % 1011,1 hPa 0,0 l/m 0 min 0 min 103 W/m 12,9 km/h (3 Bft) 91,49 %
17.10.2019 15:22 15,4 C 13,9 C 13,3 C 90 % 1011,1 hPa 0,0 l/m 0 min 0 min 90 W/m 6,4 km/h (2 Bft) 93,62 %
17.10.2019 15:20 15,5 C 13,9 C 13,3 C 90 % 1011,2 hPa 0,0 l/m 0 min 0 min 78 W/m 12,9 km/h (3 Bft) 91,49 %
17.10.2019 15:18 15,6 C 14,4 C 13,9 C 90 % 1011,1 hPa 0,0 l/m 0 min 0 min 94 W/m 16,1 km/h (3 Bft) 93,62 %
17.10.2019 15:16 15,6 C 14,4 C 13,9 C 90 % 1011,2 hPa 0,0 l/m 0 min 0 min 97 W/m 12,9 km/h (3 Bft) 93,62 %
17.10.2019 15:14 15,7 C 14,4 C 13,9 C 90 % 1011,2 hPa 0,0 l/m 0 min 0 min 98 W/m 12,9 km/h (3 Bft) 95,65 %
17.10.2019 15:12 15,7 C 14,4 C 13,9 C 89 % 1011,2 hPa 0,0 l/m 0 min 0 min 96 W/m 12,9 km/h (3 Bft) 91,49 %
17.10.2019 15:10 15,7 C 14,4 C 13,9 C 89 % 1011,2 hPa 0,0 l/m 0 min 0 min 102 W/m 12,9 km/h (3 Bft) 95,74 %
17.10.2019 15:08 15,8 C 14,4 C 13,9 C 89 % 1011,2 hPa 0,0 l/m 0 min 0 min 104 W/m 6,4 km/h (2 Bft) 93,62 %
17.10.2019 15:06 15,8 C 14,4 C 13,9 C 89 % 1011,3 hPa 0,0 l/m 0 min 0 min 111 W/m 16,1 km/h (3 Bft) 95,74 %
17.10.2019 15:04 15,8 C 14,4 C 13,9 C 89 % 1011,3 hPa 0,0 l/m 0 min 0 min 114 W/m 16,1 km/h (3 Bft) 95,65 %
17.10.2019 15:02 15,8 C 14,4 C 13,9 C 89 % 1011,3 hPa 0,0 l/m 0 min 0 min 130 W/m 12,9 km/h (3 Bft) 91,49 %
17.10.2019 15:00 15,9 C 15,0 C 14,4 C 88 % 1011,3 hPa 0,0 l/m 0 min 0 min 158 W/m 12,9 km/h (3 Bft) 95,74 %
17.10.2019 14:58 15,9 C 15,6 C 14,4 C 88 % 1011,3 hPa 0,0 l/m 0 min 0 min 202 W/m 6,4 km/h (2 Bft) 93,62 %
17.10.2019 14:56 15,9 C 15,6 C 14,4 C 87 % 1011,3 hPa 0,0 l/m 2 min 0 min 227 W/m 16,1 km/h (3 Bft) 95,74 %
17.10.2019 14:54 15,9 C 15,0 C 13,9 C 87 % 1011,4 hPa 0,0 l/m 0 min 0 min 210 W/m 16,1 km/h (3 Bft) 93,62 %
17.10.2019 14:52 16,0 C 14,4 C 13,9 C 87 % 1011,3 hPa 0,0 l/m 0 min 0 min 155 W/m 16,1 km/h (3 Bft) 95,65 %
17.10.2019 14:50 16,0 C 14,4 C 13,9 C 87 % 1011,3 hPa 0,0 l/m 0 min 0 min 147 W/m 12,9 km/h (3 Bft) 97,87 %
17.10.2019 14:48 16,1 C 14,4 C 13,9 C 86 % 1011,4 hPa 0,0 l/m 0 min 0 min 118 W/m 16,1 km/h (3 Bft) 97,87 %
17.10.2019 14:46 16,1 C 14,4 C 13,9 C 86 % 1011,4 hPa 0,0 l/m 0 min 0 min 102 W/m 16,1 km/h (3 Bft) 97,87 %
17.10.2019 14:44 16,1 C 15,0 C 14,4 C 86 % 1011,4 hPa 0,0 l/m 0 min 0 min 99 W/m 12,9 km/h (3 Bft) 95,74 %
17.10.2019 14:42 16,1 C 15,0 C 14,4 C 85 % 1011,4 hPa 0,0 l/m 0 min 0 min 121 W/m 25,7 km/h (4 Bft) 95,74 %
17.10.2019 14:40 16,2 C 15,6 C 14,4 C 85 % 1011,4 hPa 0,0 l/m 0 min 0 min 145 W/m 19,3 km/h (3 Bft) 97,83 %
17.10.2019 14:38 16,2 C 15,6 C 15,0 C 85 % 1011,3 hPa 0,0 l/m 0 min 0 min 155 W/m 16,1 km/h (3 Bft) 97,87 %
17.10.2019 14:36 16,2 C 15,6 C 15,0 C 85 % 1011,4 hPa 0,0 l/m 0 min 0 min 154 W/m 12,9 km/h (3 Bft) 97,87 %
17.10.2019 14:34 16,2 C 15,6 C 15,0 C 84 % 1011,4 hPa 0,0 l/m 0 min 0 min 169 W/m 16,1 km/h (3 Bft) 97,87 %
17.10.2019 14:32 16,2 C 16,1 C 15,0 C 84 % 1011,4 hPa 0,0 l/m 0 min 0 min 203 W/m 12,9 km/h (3 Bft) 97,87 %
17.10.2019 14:30 16,2 C 16,1 C 15,0 C 84 % 1011,4 hPa 0,0 l/m 0 min 0 min 209 W/m 19,3 km/h (3 Bft) 95,74 %
17.10.2019 14:28 16,2 C 16,1 C 15,0 C 84 % 1011,3 hPa 0,0 l/m 0 min 0 min 192 W/m 16,1 km/h (3 Bft) 95,65 %
17.10.2019 14:26 16,2 C 15,6 C 15,0 C 83 % 1011,4 hPa 0,0 l/m 0 min 0 min 164 W/m 19,3 km/h (3 Bft) 100,00 %
17.10.2019 14:24 16,3 C 15,6 C 15,0 C 83 % 1011,4 hPa 0,0 l/m 0 min 0 min 170 W/m 22,5 km/h (4 Bft) 100,00 %
17.10.2019 14:22 16,3 C 16,1 C 15,0 C 84 % 1011,4 hPa 0,0 l/m 0 min 0 min 189 W/m 19,3 km/h (3 Bft) 97,87 %
17.10.2019 14:20 16,3 C 16,1 C 15,0 C 84 % 1011,3 hPa 0,0 l/m 0 min 0 min 182 W/m 16,1 km/h (3 Bft) 97,87 %
17.10.2019 14:18 16,3 C 16,7 C 15,0 C 83 % 1011,3 hPa 0,0 l/m 0 min 0 min 184 W/m 19,3 km/h (3 Bft) 100,00 %
17.10.2019 14:16 16,3 C 16,1 C 14,4 C 83 % 1011,3 hPa 0,0 l/m 0 min 0 min 209 W/m 9,7 km/h (2 Bft) 100,00 %
17.10.2019 14:14 16,3 C 16,1 C 14,4 C 83 % 1011,4 hPa 0,0 l/m 2 min 0 min 236 W/m 12,9 km/h (3 Bft) 100,00 %
17.10.2019 14:12 16,3 C 16,1 C 13,9 C 83 % 1011,4 hPa 0,0 l/m 0 min 0 min 181 W/m 16,1 km/h (3 Bft) 97,87 %
17.10.2019 14:10 16,3 C 15,6 C 13,9 C 82 % 1011,4 hPa 0,0 l/m 0 min 0 min 161 W/m 16,1 km/h (3 Bft) 97,87 %
17.10.2019 14:08 16,3 C 16,1 C 14,4 C 82 % 1011,4 hPa 0,0 l/m 0 min 0 min 167 W/m 12,9 km/h (3 Bft) 95,74 %
17.10.2019 14:06 16,4 C 15,6 C 13,9 C 82 % 1011,4 hPa 0,0 l/m 0 min 0 min 133 W/m 22,5 km/h (4 Bft) 100,00 %
17.10.2019 14:04 16,4 C 16,1 C 13,9 C 82 % 1011,4 hPa 0,0 l/m 0 min 0 min 105 W/m 16,1 km/h (3 Bft) 100,00 %
17.10.2019 14:02 16,4 C 16,1 C 14,4 C 82 % 1011,3 hPa 0,0 l/m 0 min 0 min 109 W/m 12,9 km/h (3 Bft) 97,87 %
17.10.2019 14:00 16,4 C 16,1 C 14,4 C 82 % 1011,3 hPa 0,0 l/m 0 min 0 min 123 W/m 12,9 km/h (3 Bft) 100,00 %
17.10.2019 13:58 16,5 C 16,1 C 14,4 C 82 % 1011,4 hPa 0,0 l/m 0 min 0 min 105 W/m 16,1 km/h (3 Bft) 97,87 %
17.10.2019 13:56 16,5 C 16,1 C 14,4 C 82 % 1011,4 hPa 0,0 l/m 0 min 0 min 106 W/m 16,1 km/h (3 Bft) 100,00 %
17.10.2019 13:54 16,5 C 16,1 C 14,4 C 82 % 1011,4 hPa 0,0 l/m 0 min 0 min 142 W/m 16,1 km/h (3 Bft) 100,00 %
17.10.2019 13:52 16,5 C 16,1 C 14,4 C 82 % 1011,4 hPa 0,0 l/m 0 min 0 min 187 W/m 16,1 km/h (3 Bft) 97,83 %
17.10.2019 13:50 16,5 C 16,1 C 14,4 C 81 % 1011,4 hPa 0,0 l/m 0 min 0 min 171 W/m 19,3 km/h (3 Bft) 100,00 %
17.10.2019 13:48 16,6 C 16,1 C 14,4 C 81 % 1011,4 hPa 0,0 l/m 0 min 0 min 161 W/m 19,3 km/h (3 Bft) 100,00 %
17.10.2019 13:46 16,6 C 16,7 C 14,4 C 82 % 1011,5 hPa 0,0 l/m 0 min 0 min 177 W/m 19,3 km/h (3 Bft) 100,00 %
17.10.2019 13:44 16,6 C 16,7 C 15,0 C 82 % 1011,5 hPa 0,0 l/m 0 min 0 min 200 W/m 19,3 km/h (3 Bft) 100,00 %
17.10.2019 13:42 16,6 C 16,7 C 14,4 C 82 % 1011,5 hPa 0,0 l/m 0 min 0 min 213 W/m 19,3 km/h (3 Bft) 100,00 %
17.10.2019 13:40 16,6 C 16,7 C 14,4 C 82 % 1011,5 hPa 0,0 l/m 0 min 0 min 235 W/m 19,3 km/h (3 Bft) 100,00 %
17.10.2019 13:38 16,6 C 16,7 C 14,4 C 82 % 1011,5 hPa 0,0 l/m 0 min 0 min 240 W/m 19,3 km/h (3 Bft) 100,00 %
17.10.2019 13:36 16,6 C 16,7 C 14,4 C 82 % 1011,5 hPa 0,0 l/m 0 min 0 min 204 W/m 16,1 km/h (3 Bft) 100,00 %
17.10.2019 13:34 16,6 C 16,7 C 14,4 C 82 % 1011,5 hPa 0,0 l/m 0 min 0 min 180 W/m 16,1 km/h (3 Bft) 100,00 %
17.10.2019 13:32 16,6 C 17,2 C 14,4 C 82 % 1011,5 hPa 0,0 l/m 0 min 0 min 204 W/m 16,1 km/h (3 Bft) 100,00 %
17.10.2019 13:30 16,6 C 17,2 C 15,0 C 82 % 1011,6 hPa 0,0 l/m 2 min 0 min 257 W/m 19,3 km/h (3 Bft) 100,00 %
17.10.2019 13:28 16,6 C 17,8 C 14,4 C 82 % 1011,5 hPa 0,0 l/m 2 min 0 min 308 W/m 19,3 km/h (3 Bft) 100,00 %
17.10.2019 13:26 16,6 C 17,8 C 14,4 C 82 % 1011,5 hPa 0,0 l/m 2 min 0 min 283 W/m 19,3 km/h (3 Bft) 100,00 %
17.10.2019 13:24 16,6 C 17,2 C 14,4 C 83 % 1011,5 hPa 0,0 l/m 2 min 0 min 271 W/m 19,3 km/h (3 Bft) 97,87 %
17.10.2019 13:22 16,6 C 17,8 C 14,4 C 84 % 1011,5 hPa 0,0 l/m 2 min 0 min 308 W/m 16,1 km/h (3 Bft) 95,74 %
17.10.2019 13:20 16,6 C 17,8 C 15,0 C 85 % 1011,5 hPa 0,0 l/m 2 min 0 min 299 W/m 12,9 km/h (3 Bft) 97,87 %
17.10.2019 13:18 16,5 C 17,8 C 14,4 C 85 % 1011,6 hPa 0,0 l/m 2 min 0 min 258 W/m 16,1 km/h (3 Bft) 97,83 %
17.10.2019 13:16 16,4 C 17,8 C 14,4 C 85 % 1011,6 hPa 0,0 l/m 2 min 0 min 252 W/m 9,7 km/h (2 Bft) 95,74 %
17.10.2019 13:14 16,4 C 18,3 C 14,4 C 86 % 1011,6 hPa 0,0 l/m 2 min 0 min 260 W/m 9,7 km/h (2 Bft) 97,87 %
17.10.2019 13:12 16,4 C 19,4 C 14,4 C 87 % 1011,6 hPa 0,0 l/m 2 min 0 min 308 W/m 12,9 km/h (3 Bft) 97,87 %
17.10.2019 13:10 16,3 C 20,6 C 14,4 C 88 % 1011,6 hPa 0,0 l/m 2 min 0 min 524 W/m 16,1 km/h (3 Bft) 95,74 %
17.10.2019 13:08 16,2 C 21,1 C 14,4 C 90 % 1011,6 hPa 0,0 l/m 2 min 0 min 594 W/m 22,5 km/h (4 Bft) 97,87 %
17.10.2019 13:06 16,2 C 22,2 C 14,4 C 91 % 1011,6 hPa 0,0 l/m 2 min 0 min 556 W/m 16,1 km/h (3 Bft) 95,65 %
17.10.2019 13:04 16,1 C 22,2 C 14,4 C 92 % 1011,5 hPa 0,0 l/m 2 min 0 min 440 W/m 12,9 km/h (3 Bft) 97,87 %
17.10.2019 13:02 15,9 C 22,8 C 14,4 C 92 % 1011,6 hPa 0,0 l/m 2 min 0 min 552 W/m 6,4 km/h (2 Bft) 97,87 %
17.10.2019 13:00 15,8 C 22,8 C 14,4 C 92 % 1011,6 hPa 0,0 l/m 2 min 0 min 556 W/m 9,7 km/h (2 Bft) 97,87 %
17.10.2019 12:58 15,8 C 23,3 C 14,4 C 93 % 1011,6 hPa 0,0 l/m 2 min 0 min 582 W/m 9,7 km/h (2 Bft) 97,87 %
17.10.2019 12:56 15,7 C 22,2 C 14,4 C 93 % 1011,7 hPa 0,0 l/m 2 min 0 min 622 W/m 12,9 km/h (3 Bft) 97,87 %
17.10.2019 12:54 15,6 C 21,7 C 13,9 C 93 % 1011,7 hPa 0,0 l/m 2 min 0 min 416 W/m 12,9 km/h (3 Bft) 97,83 %
17.10.2019 12:52 15,5 C 20,6 C 13,9 C 93 % 1011,7 hPa 0,0 l/m 2 min 0 min 446 W/m 6,4 km/h (2 Bft) 97,87 %
17.10.2019 12:50 15,4 C 20,6 C 13,9 C 93 % 1011,7 hPa 0,0 l/m 2 min 0 min 380 W/m 6,4 km/h (2 Bft) 95,74 %
17.10.2019 12:48 15,3 C 18,9 C 13,9 C 93 % 1011,7 hPa 0,0 l/m 2 min 0 min 353 W/m 6,4 km/h (2 Bft) 93,62 %
17.10.2019 12:46 15,3 C 18,3 C 13,9 C 93 % 1011,8 hPa 0,0 l/m 0 min 0 min 238 W/m 3,2 km/h (1 Bft) 95,74 %
17.10.2019 12:44 15,2 C 16,1 C 13,3 C 93 % 1011,9 hPa 0,0 l/m 0 min 0 min 180 W/m 9,7 km/h (2 Bft) 97,87 %
17.10.2019 12:42 15,2 C 15,6 C 13,3 C 94 % 1011,9 hPa 0,0 l/m 0 min 0 min 155 W/m 12,9 km/h (3 Bft) 93,48 %
17.10.2019 12:40 15,2 C 15,6 C 13,3 C 94 % 1011,9 hPa 0,0 l/m 0 min 0 min 158 W/m 19,3 km/h (3 Bft) 100,00 %
17.10.2019 12:38 15,3 C 15,6 C 13,3 C 95 % 1011,9 hPa 0,0 l/m 0 min 0 min 142 W/m 19,3 km/h (3 Bft) 97,87 %
17.10.2019 12:36 15,3 C 16,1 C 13,3 C 96 % 1011,8 hPa 0,0 l/m 0 min 0 min 138 W/m 22,5 km/h (4 Bft) 97,87 %
17.10.2019 12:34 15,3 C 16,7 C 13,9 C 96 % 1011,8 hPa 0,0 l/m 0 min 0 min 180 W/m 19,3 km/h (3 Bft) 97,87 %
17.10.2019 12:32 15,3 C 17,8 C 13,9 C 97 % 1011,8 hPa 0,0 l/m 2 min 0 min 281 W/m 19,3 km/h (3 Bft) 97,83 %
17.10.2019 12:30 15,3 C 17,8 C 13,9 C 97 % 1011,9 hPa 0,0 l/m 0 min 0 min 181 W/m 16,1 km/h (3 Bft) 97,87 %
17.10.2019 12:28 15,2 C 18,3 C 13,9 C 97 % 1011,8 hPa 0,0 l/m 0 min 0 min 173 W/m 12,9 km/h (3 Bft) 97,87 %
17.10.2019 12:26 15,2 C 17,8 C 13,3 C 98 % 1011,9 hPa 0,0 l/m 0 min 0 min 231 W/m 12,9 km/h (3 Bft) 97,87 %
17.10.2019 12:24 15,2 C 18,9 C 13,3 C 98 % 1011,9 hPa 0,0 l/m 2 min 0 min 384 W/m 16,1 km/h (3 Bft) 97,87 %
17.10.2019 12:22 15,1 C 20,6 C 13,3 C 98 % 1011,8 hPa 0,0 l/m 2 min 0 min 424 W/m 19,3 km/h (3 Bft) 97,87 %
17.10.2019 12:20 15,1 C 20,6 C 13,9 C 98 % 1011,9 hPa 0,0 l/m 2 min 0 min 364 W/m 12,9 km/h (3 Bft) 97,83 %
17.10.2019 12:18 15,0 C 20,6 C 13,9 C 98 % 1011,9 hPa 0,0 l/m 2 min 0 min 356 W/m 6,4 km/h (2 Bft) 97,87 %
17.10.2019 12:16 14,9 C 21,1 C 13,9 C 98 % 1011,9 hPa 0,0 l/m 2 min 0 min 497 W/m 6,4 km/h (2 Bft) 100,00 %
17.10.2019 12:14 14,8 C 21,1 C 13,9 C 98 % 1011,8 hPa 0,0 l/m 2 min 0 min 526 W/m 9,7 km/h (2 Bft) 97,87 %
17.10.2019 12:12 14,8 C 21,1 C 13,9 C 98 % 1011,9 hPa 0,0 l/m 2 min 0 min 546 W/m 9,7 km/h (2 Bft) 100,00 %
17.10.2019 12:10 14,7 C 21,1 C 13,9 C 98 % 1011,9 hPa 0,0 l/m 2 min 0 min 530 W/m 12,9 km/h (3 Bft) 100,00 %
17.10.2019 12:08 14,6 C 19,4 C 13,9 C 98 % 1011,9 hPa 0,0 l/m 4 min 0 min 349 W/m 35,4 km/h (5 Bft) 98,96 %
17.10.2019 12:04 14,4 C 19,4 C 13,3 C 98 % 1011,9 hPa 0,0 l/m 2 min 0 min 489 W/m 12,9 km/h (3 Bft) 100,00 %
17.10.2019 12:02 14,3 C 18,3 C 13,3 C 98 % 1011,8 hPa 0,0 l/m 2 min 0 min 518 W/m 6,4 km/h (2 Bft) 100,00 %
17.10.2019 12:00 14,3 C 17,2 C 13,3 C 98 % 1011,9 hPa 0,0 l/m 2 min 0 min 531 W/m 16,1 km/h (3 Bft) 100,00 %
17.10.2019 11:58 14,3 C 17,2 C 13,3 C 98 % 1011,8 hPa 0,0 l/m 2 min 0 min 533 W/m 12,9 km/h (3 Bft) 97,87 %
17.10.2019 11:56 14,3 C 16,7 C 13,3 C 98 % 1011,7 hPa 0,0 l/m 2 min 0 min 495 W/m 12,9 km/h (3 Bft) 100,00 %
17.10.2019 11:54 14,2 C 16,7 C 13,3 C 98 % 1011,7 hPa 0,0 l/m 2 min 0 min 456 W/m 6,4 km/h (2 Bft) 100,00 %
17.10.2019 11:52 14,2 C 16,1 C 13,3 C 98 % 1011,8 hPa 0,0 l/m 2 min 0 min 340 W/m 12,9 km/h (3 Bft) 97,87 %
17.10.2019 11:50 14,1 C 15,0 C 12,8 C 98 % 1011,7 hPa 0,0 l/m 2 min 0 min 274 W/m 12,9 km/h (3 Bft) 100,00 %
17.10.2019 11:48 14,1 C 14,4 C 12,8 C 98 % 1011,7 hPa 0,0 l/m 2 min 0 min 267 W/m 9,7 km/h (2 Bft) 97,83 %
17.10.2019 11:46 14,2 C 13,9 C 12,8 C 98 % 1011,6 hPa 0,0 l/m 2 min 0 min 253 W/m 16,1 km/h (3 Bft) 100,00 %
17.10.2019 11:44 14,3 C 13,9 C 12,8 C 98 % 1011,6 hPa 0,0 l/m 0 min 0 min 210 W/m 16,1 km/h (3 Bft) 100,00 %
17.10.2019 11:42 14,3 C 13,9 C 13,3 C 98 % 1011,8 hPa 0,0 l/m 0 min 0 min 140 W/m 12,9 km/h (3 Bft) 100,00 %
17.10.2019 11:40 14,3 C 13,9 C 13,3 C 98 % 1011,7 hPa 0,0 l/m 0 min 0 min 155 W/m 6,4 km/h (2 Bft) 100,00 %
17.10.2019 11:38 14,3 C 13,9 C 13,3 C 98 % 1011,7 hPa 0,0 l/m 2 min 0 min 247 W/m 16,1 km/h (3 Bft) 100,00 %
17.10.2019 11:36 14,3 C 14,4 C 13,3 C 98 % 1011,7 hPa 0,0 l/m 0 min 0 min 192 W/m 16,1 km/h (3 Bft) 100,00 %
17.10.2019 11:34 14,3 C 13,9 C 12,8 C 98 % 1011,7 hPa 0,0 l/m 0 min 0 min 148 W/m 12,9 km/h (3 Bft) 97,87 %
17.10.2019 11:32 14,3 C 13,9 C 12,8 C 98 % 1011,6 hPa 0,0 l/m 0 min 0 min 169 W/m 12,9 km/h (3 Bft) 100,00 %
17.10.2019 11:30 14,3 C 13,9 C 12,8 C 98 % 1011,5 hPa 0,0 l/m 0 min 0 min 179 W/m 3,2 km/h (1 Bft) 100,00 %
17.10.2019 11:28 14,2 C 13,3 C 12,8 C 98 % 1011,5 hPa 0,0 l/m 0 min 0 min 173 W/m 6,4 km/h (2 Bft) 100,00 %
17.10.2019 11:26 14,2 C 13,3 C 12,8 C 98 % 1011,4 hPa 0,0 l/m 0 min 2 min 198 W/m 6,4 km/h (2 Bft) 100,00 %
17.10.2019 11:24 14,2 C 13,3 C 12,8 C 98 % 1011,4 hPa 0,0 l/m 2 min 2 min 212 W/m 6,4 km/h (2 Bft) 97,83 %
17.10.2019 11:22 14,2 C 13,3 C 12,8 C 98 % 1011,3 hPa 0,0 l/m 0 min 2 min 178 W/m 16,1 km/h (3 Bft) 97,87 %
17.10.2019 11:20 14,3 C 12,8 C 12,8 C 98 % 1011,4 hPa 0,0 l/m 0 min 0 min 123 W/m 6,4 km/h (2 Bft) 97,87 %
17.10.2019 11:18 14,3 C 12,8 C 12,2 C 98 % 1011,3 hPa 0,0 l/m 0 min 0 min 95 W/m 3,2 km/h (1 Bft) 97,87 %
17.10.2019 11:16 14,3 C 12,8 C 12,8 C 98 % 1011,3 hPa 0,0 l/m 0 min 0 min 64 W/m 9,7 km/h (2 Bft) 95,74 %
17.10.2019 11:14 14,3 C 12,8 C 12,8 C 98 % 1011,3 hPa 0,0 l/m 0 min 2 min 49 W/m 9,7 km/h (2 Bft) 97,83 %
17.10.2019 11:12 14,3 C 12,8 C 12,8 C 98 % 1011,3 hPa 0,0 l/m 0 min 2 min 43 W/m 9,7 km/h (2 Bft) 97,87 %
17.10.2019 11:10 14,3 C 12,8 C 12,8 C 98 % 1011,2 hPa 0,0 l/m 0 min 0 min 39 W/m 6,4 km/h (2 Bft) 97,87 %
17.10.2019 11:08 14,4 C 13,3 C 12,8 C 98 % 1011,3 hPa 0,0 l/m 0 min 0 min 51 W/m 3,2 km/h (1 Bft) 97,87 %
17.10.2019 11:06 14,4 C 13,3 C 12,8 C 98 % 1011,2 hPa 0,0 l/m 0 min 0 min 64 W/m 6,4 km/h (2 Bft) 91,49 %
17.10.2019 11:04 14,4 C 13,3 C 12,8 C 98 % 1011,1 hPa 0,0 l/m 0 min 0 min 69 W/m 6,4 km/h (2 Bft) 95,74 %
17.10.2019 11:02 14,4 C 13,3 C 12,8 C 98 % 1011,1 hPa 0,0 l/m 0 min 0 min 80 W/m 6,4 km/h (2 Bft) 95,65 %
17.10.2019 11:00 14,4 C 13,3 C 12,8 C 98 % 1011,1 hPa 0,0 l/m 0 min 2 min 97 W/m 6,4 km/h (2 Bft) 95,74 %
17.10.2019 10:58 14,4 C 13,3 C 12,8 C 98 % 1011,0 hPa 0,0 l/m 0 min 2 min 114 W/m 9,7 km/h (2 Bft) 95,74 %
17.10.2019 10:56 14,4 C 13,3 C 12,8 C 98 % 1011,0 hPa 0,0 l/m 0 min 2 min 84 W/m 9,7 km/h (2 Bft) 93,62 %
17.10.2019 10:54 14,4 C 13,3 C 12,8 C 98 % 1011,0 hPa 0,2 l/m 0 min 2 min 60 W/m 9,7 km/h (2 Bft) 95,74 %
17.10.2019 10:52 14,4 C 13,3 C 12,8 C 98 % 1010,9 hPa 0,0 l/m 0 min 2 min 43 W/m 9,7 km/h (2 Bft) 95,74 %
17.10.2019 10:50 14,4 C 13,3 C 12,8 C 98 % 1010,9 hPa 0,0 l/m 0 min 0 min 67 W/m 12,9 km/h (3 Bft) 95,65 %
17.10.2019 10:48 14,4 C 13,3 C 12,8 C 98 % 1010,8 hPa 0,0 l/m 0 min 2 min 83 W/m 16,1 km/h (3 Bft) 93,62 %
17.10.2019 10:46 14,4 C 13,3 C 12,8 C 98 % 1010,8 hPa 0,0 l/m 0 min 0 min 86 W/m 16,1 km/h (3 Bft) 93,62 %
17.10.2019 10:44 14,4 C 13,3 C 12,8 C 98 % 1010,9 hPa 0,0 l/m 0 min 2 min 87 W/m 19,3 km/h (3 Bft) 93,62 %
17.10.2019 10:42 14,3 C 13,3 C 12,8 C 98 % 1010,8 hPa 0,0 l/m 0 min 2 min 92 W/m 22,5 km/h (4 Bft) 95,74 %
17.10.2019 10:40 14,4 C 13,3 C 12,8 C 98 % 1010,9 hPa 0,0 l/m 0 min 2 min 83 W/m 19,3 km/h (3 Bft) 93,62 %
17.10.2019 10:38 14,3 C 13,3 C 12,8 C 98 % 1010,8 hPa 0,0 l/m 0 min 2 min 61 W/m 16,1 km/h (3 Bft) 95,65 %
17.10.2019 10:36 14,3 C 13,3 C 12,8 C 98 % 1010,8 hPa 0,0 l/m 0 min 0 min 54 W/m 12,9 km/h (3 Bft) 95,74 %
17.10.2019 10:34 14,3 C 13,3 C 12,8 C 98 % 1010,8 hPa 0,0 l/m 0 min 0 min 47 W/m 25,7 km/h (4 Bft) 93,62 %
17.10.2019 10:32 14,4 C 13,3 C 12,8 C 98 % 1010,8 hPa 0,0 l/m 0 min 0 min 36 W/m 16,1 km/h (3 Bft) 95,74 %
17.10.2019 10:30 14,4 C 13,3 C 12,8 C 98 % 1010,7 hPa 0,0 l/m 0 min 2 min 37 W/m 12,9 km/h (3 Bft) 93,62 %
17.10.2019 10:28 14,4 C 13,3 C 12,8 C 98 % 1010,8 hPa 0,0 l/m 0 min 0 min 38 W/m 16,1 km/h (3 Bft) 95,74 %
17.10.2019 10:26 14,4 C 13,3 C 12,8 C 98 % 1010,7 hPa 0,0 l/m 0 min 0 min 35 W/m 12,9 km/h (3 Bft) 93,48 %
17.10.2019 10:24 14,4 C 13,3 C 12,8 C 98 % 1010,7 hPa 0,0 l/m 0 min 0 min 39 W/m 12,9 km/h (3 Bft) 100,00 %
17.10.2019 10:22 14,4 C 13,3 C 12,8 C 98 % 1010,7 hPa 0,0 l/m 0 min 0 min 44 W/m 12,9 km/h (3 Bft) 100,00 %
17.10.2019 10:20 14,4 C 13,3 C 12,8 C 98 % 1010,7 hPa 0,0 l/m 0 min 0 min 53 W/m 16,1 km/h (3 Bft) 97,87 %
17.10.2019 10:18 14,4 C 13,3 C 12,8 C 97 % 1010,7 hPa 0,0 l/m 0 min 2 min 54 W/m 16,1 km/h (3 Bft) 97,87 %
17.10.2019 10:16 14,4 C 13,3 C 12,8 C 98 % 1010,7 hPa 0,0 l/m 0 min 2 min 54 W/m 19,3 km/h (3 Bft) 100,00 %
17.10.2019 10:14 14,4 C 13,3 C 12,8 C 98 % 1010,7 hPa 0,0 l/m 0 min 2 min 54 W/m 6,4 km/h (2 Bft) 97,83 %
17.10.2019 10:12 14,4 C 13,3 C 12,8 C 98 % 1010,7 hPa 0,0 l/m 0 min 2 min 51 W/m 16,1 km/h (3 Bft) 95,74 %
17.10.2019 10:10 14,4 C 13,3 C 12,8 C 97 % 1010,7 hPa 0,0 l/m 0 min 0 min 49 W/m 16,1 km/h (3 Bft) 97,87 %
17.10.2019 10:08 14,4 C 13,3 C 12,8 C 97 % 1010,6 hPa 0,0 l/m 0 min 0 min 60 W/m 19,3 km/h (3 Bft) 97,87 %
17.10.2019 10:06 14,4 C 13,3 C 12,8 C 97 % 1010,6 hPa 0,0 l/m 0 min 0 min 64 W/m 16,1 km/h (3 Bft) 100,00 %
17.10.2019 10:04 14,4 C 13,3 C 12,8 C 97 % 1010,6 hPa 0,0 l/m 0 min 0 min 55 W/m 12,9 km/h (3 Bft) 100,00 %
17.10.2019 10:02 14,4 C 13,3 C 12,8 C 97 % 1010,6 hPa 0,0 l/m 0 min 0 min 48 W/m 19,3 km/h (3 Bft) 100,00 %
17.10.2019 10:00 14,4 C 13,3 C 12,8 C 97 % 1010,6 hPa 0,2 l/m 0 min 0 min 48 W/m 12,9 km/h (3 Bft) 100,00 %
17.10.2019 09:58 14,4 C 13,3 C 12,8 C 97 % 1010,6 hPa 0,0 l/m 0 min 0 min 50 W/m 12,9 km/h (3 Bft) 97,87 %
17.10.2019 09:56 14,4 C 13,3 C 12,8 C 97 % 1010,6 hPa 0,0 l/m 0 min 0 min 49 W/m 19,3 km/h (3 Bft) 95,74 %
17.10.2019 09:54 14,4 C 13,3 C 12,8 C 97 % 1010,5 hPa 0,0 l/m 0 min 0 min 41 W/m 9,7 km/h (2 Bft) 97,14 %
17.10.2019 09:52 14,4 C 12,8 C 12,8 C 97 % 1010,6 hPa 0,0 l/m 0 min 0 min 48 W/m 19,3 km/h (3 Bft) 98,28 %
17.10.2019 09:50 14,4 C 13,3 C 12,8 C 97 % 1010,5 hPa 0,0 l/m 0 min 2 min 52 W/m 19,3 km/h (3 Bft) 97,87 %
17.10.2019 09:48 14,4 C 13,3 C 12,8 C 97 % 1010,5 hPa 0,0 l/m 0 min 2 min 53 W/m 19,3 km/h (3 Bft) 95,74 %
17.10.2019 09:46 14,4 C 13,3 C 12,8 C 97 % 1010,5 hPa 0,0 l/m 0 min 2 min 42 W/m 19,3 km/h (3 Bft) 95,74 %
17.10.2019 09:44 14,4 C 13,3 C 12,8 C 97 % 1010,5 hPa 0,0 l/m 0 min 0 min 37 W/m 19,3 km/h (3 Bft) 97,87 %
17.10.2019 09:42 14,4 C 13,3 C 12,8 C 97 % 1010,5 hPa 0,0 l/m 0 min 0 min 38 W/m 19,3 km/h (3 Bft) 97,87 %
17.10.2019 09:40 14,4 C 13,3 C 12,8 C 97 % 1010,5 hPa 0,0 l/m 0 min 0 min 43 W/m 19,3 km/h (3 Bft) 100,00 %
17.10.2019 09:38 14,4 C 13,3 C 12,8 C 97 % 1010,5 hPa 0,0 l/m 0 min 0 min 46 W/m 25,7 km/h (4 Bft) 95,65 %
17.10.2019 09:36 14,4 C 13,3 C 12,8 C 96 % 1010,4 hPa 0,0 l/m 0 min 0 min 44 W/m 16,1 km/h (3 Bft) 97,87 %
17.10.2019 09:34 14,4 C 13,3 C 12,8 C 97 % 1010,4 hPa 0,0 l/m 0 min 0 min 41 W/m 19,3 km/h (3 Bft) 94,92 %
17.10.2019 09:32 14,4 C 13,3 C 12,8 C 96 % 1010,4 hPa 0,0 l/m 0 min 0 min 39 W/m 12,9 km/h (3 Bft) 97,87 %
17.10.2019 09:30 14,4 C 13,3 C 12,8 C 96 % 1010,4 hPa 0,0 l/m 0 min 0 min 39 W/m 16,1 km/h (3 Bft) 97,87 %
17.10.2019 09:28 14,4 C 13,3 C 12,8 C 96 % 1010,4 hPa 0,0 l/m 0 min 0 min 40 W/m 12,9 km/h (3 Bft) 91,30 %
17.10.2019 09:26 14,4 C 13,3 C 12,8 C 96 % 1010,4 hPa 0,0 l/m 0 min 0 min 41 W/m 12,9 km/h (3 Bft) 97,87 %
17.10.2019 09:24 14,4 C 13,3 C 12,8 C 96 % 1010,4 hPa 0,0 l/m 0 min 0 min 46 W/m 19,3 km/h (3 Bft) 94,29 %
17.10.2019 09:22 14,4 C 13,3 C 12,8 C 96 % 1010,4 hPa 0,0 l/m 0 min 0 min 49 W/m 19,3 km/h (3 Bft) 93,22 %
17.10.2019 09:20 14,4 C 13,3 C 12,8 C 96 % 1010,3 hPa 0,0 l/m 0 min 0 min 45 W/m 12,9 km/h (3 Bft) 97,87 %
17.10.2019 09:18 14,4 C 13,3 C 12,8 C 96 % 1010,3 hPa 0,0 l/m 0 min 0 min 34 W/m 16,1 km/h (3 Bft) 97,14 %
17.10.2019 09:16 14,4 C 13,3 C 12,8 C 96 % 1010,3 hPa 0,0 l/m 0 min 0 min 27 W/m 16,1 km/h (3 Bft) 97,87 %
17.10.2019 09:14 14,4 C 13,3 C 12,8 C 96 % 1010,3 hPa 0,0 l/m 0 min 0 min 24 W/m 22,5 km/h (4 Bft) 98,28 %
17.10.2019 09:12 14,4 C 13,3 C 12,8 C 96 % 1010,3 hPa 0,0 l/m 0 min 0 min 26 W/m 19,3 km/h (3 Bft) 95,74 %
17.10.2019 09:10 14,4 C 13,3 C 12,8 C 96 % 1010,3 hPa 0,0 l/m 0 min 0 min 29 W/m 19,3 km/h (3 Bft) 97,87 %
17.10.2019 09:08 14,4 C 13,3 C 12,8 C 96 % 1010,3 hPa 0,0 l/m 0 min 0 min 30 W/m 22,5 km/h (4 Bft) 97,87 %
17.10.2019 09:06 14,4 C 13,3 C 12,8 C 96 % 1010,2 hPa 0,0 l/m 0 min 0 min 31 W/m 25,7 km/h (4 Bft) 95,65 %
17.10.2019 09:04 14,4 C 12,8 C 12,8 C 95 % 1010,3 hPa 0,0 l/m 0 min 0 min 26 W/m 19,3 km/h (3 Bft) 100,00 %
17.10.2019 09:02 14,4 C 13,3 C 12,8 C 95 % 1010,2 hPa 0,0 l/m 0 min 0 min 19 W/m 22,5 km/h (4 Bft) 97,14 %
17.10.2019 09:00 14,4 C 13,3 C 12,8 C 95 % 1010,2 hPa 0,0 l/m 0 min 0 min 20 W/m 12,9 km/h (3 Bft) 100,00 %
17.10.2019 08:58 14,4 C 13,3 C 12,8 C 95 % 1010,2 hPa 0,0 l/m 0 min 0 min 23 W/m 22,5 km/h (4 Bft) 100,00 %
17.10.2019 08:56 14,4 C 13,3 C 12,8 C 95 % 1010,2 hPa 0,0 l/m 0 min 0 min 21 W/m 16,1 km/h (3 Bft) 97,14 %
17.10.2019 08:54 14,4 C 13,3 C 12,8 C 95 % 1010,2 hPa 0,0 l/m 0 min 0 min 21 W/m 19,3 km/h (3 Bft) 98,28 %
17.10.2019 08:52 14,4 C 13,3 C 12,8 C 95 % 1010,2 hPa 0,0 l/m 0 min 0 min 18 W/m 25,7 km/h (4 Bft) 100,00 %
17.10.2019 08:50 14,4 C 13,3 C 13,3 C 95 % 1010,2 hPa 0,0 l/m 0 min 0 min 14 W/m 16,1 km/h (3 Bft) 97,87 %
17.10.2019 08:48 14,4 C 13,3 C 13,3 C 95 % 1010,1 hPa 0,0 l/m 0 min 0 min 14 W/m 16,1 km/h (3 Bft) 100,00 %
17.10.2019 08:46 14,4 C 13,3 C 13,3 C 95 % 1010,1 hPa 0,0 l/m 0 min 0 min 12 W/m 25,7 km/h (4 Bft) 100,00 %
17.10.2019 08:44 14,4 C 13,9 C 13,3 C 95 % 1010,1 hPa 0,0 l/m 0 min 0 min 11 W/m 16,1 km/h (3 Bft) 97,87 %
17.10.2019 08:42 14,4 C 13,9 C 13,3 C 95 % 1010,0 hPa 0,0 l/m 0 min 0 min 9 W/m 12,9 km/h (3 Bft) 100,00 %
17.10.2019 08:40 14,4 C 13,9 C 13,3 C 95 % 1010,0 hPa 0,0 l/m 0 min 0 min 8 W/m 19,3 km/h (3 Bft) 100,00 %
17.10.2019 08:38 14,4 C 13,9 C 13,3 C 95 % 1010,0 hPa 0,0 l/m 0 min 0 min 7 W/m 22,5 km/h (4 Bft) 100,00 %
17.10.2019 08:36 14,4 C 13,9 C 13,3 C 95 % 1009,9 hPa 0,0 l/m 0 min 0 min 8 W/m 16,1 km/h (3 Bft) 100,00 %
17.10.2019 08:34 14,4 C 13,9 C 13,3 C 95 % 1009,9 hPa 0,0 l/m 0 min 0 min 6 W/m 19,3 km/h (3 Bft) 95,74 %
17.10.2019 08:32 14,4 C 13,9 C 13,3 C 95 % 1009,8 hPa 0,0 l/m 0 min 0 min 5 W/m 19,3 km/h (3 Bft) 100,00 %
17.10.2019 08:30 14,4 C 13,9 C 13,3 C 95 % 1009,8 hPa 0,0 l/m 0 min 0 min 5 W/m 22,5 km/h (4 Bft) 97,87 %
17.10.2019 08:28 14,4 C 13,9 C 13,3 C 95 % 1009,8 hPa 0,0 l/m 0 min 0 min 7 W/m 25,7 km/h (4 Bft) 95,65 %
17.10.2019 08:26 14,4 C 13,9 C 13,3 C 95 % 1009,7 hPa 0,0 l/m 0 min 0 min 7 W/m 12,9 km/h (3 Bft) 97,87 %
17.10.2019 08:24 14,4 C 13,9 C 13,3 C 95 % 1009,7 hPa 0,0 l/m 0 min 0 min 7 W/m 16,1 km/h (3 Bft) 98,31 %
17.10.2019 08:22 14,4 C 13,9 C 13,3 C 95 % 1009,7 hPa 0,0 l/m 0 min 0 min 6 W/m 16,1 km/h (3 Bft) 97,14 %
17.10.2019 08:20 14,4 C 13,9 C 13,3 C 95 % 1009,6 hPa 0,0 l/m 0 min 0 min 5 W/m 22,5 km/h (4 Bft) 98,31 %
17.10.2019 08:18 14,4 C 13,9 C 13,3 C 95 % 1009,6 hPa 0,0 l/m 0 min 0 min 5 W/m 22,5 km/h (4 Bft) 97,83 %
17.10.2019 08:16 14,4 C 13,9 C 13,3 C 95 % 1009,6 hPa 0,0 l/m 0 min 0 min 1 W/m 19,3 km/h (3 Bft) 95,74 %
17.10.2019 08:14 14,4 C 13,9 C 13,3 C 95 % 1009,5 hPa 0,0 l/m 0 min 0 min 0 W/m 22,5 km/h (4 Bft) 97,87 %
17.10.2019 08:12 14,4 C 13,9 C 12,8 C 95 % 1009,5 hPa 0,0 l/m 0 min 0 min 0 W/m 16,1 km/h (3 Bft) 93,62 %
17.10.2019 08:10 14,4 C 13,9 C 12,8 C 95 % 1009,4 hPa 0,0 l/m 0 min 0 min 0 W/m 16,1 km/h (3 Bft) 93,62 %
17.10.2019 08:08 14,5 C 13,3 C 12,8 C 94 % 1009,5 hPa 0,0 l/m 0 min 0 min 0 W/m 16,1 km/h (3 Bft) 94,29 %
17.10.2019 08:06 14,4 C 13,9 C 12,8 C 94 % 1009,4 hPa 0,0 l/m 0 min 0 min 0 W/m 12,9 km/h (3 Bft) 94,83 %
17.10.2019 08:04 14,4 C 13,9 C 12,8 C 94 % 1009,4 hPa 0,0 l/m 0 min 0 min 0 W/m 19,3 km/h (3 Bft) 93,62 %
17.10.2019 08:02 14,5 C 13,9 C 12,8 C 94 % 1009,3 hPa 0,0 l/m 0 min 0 min 0 W/m 19,3 km/h (3 Bft) 97,14 %
17.10.2019 08:00 14,5 C 13,9 C 12,8 C 94 % 1009,3 hPa 0,0 l/m 0 min 0 min 0 W/m 19,3 km/h (3 Bft) 95,74 %
17.10.2019 07:58 14,5 C 13,9 C 12,8 C 94 % 1009,3 hPa 0,0 l/m 0 min 0 min 0 W/m 22,5 km/h (4 Bft) 95,74 %
17.10.2019 07:56 14,5 C 13,9 C 12,8 C 94 % 1009,3 hPa 0,0 l/m 0 min 0 min 0 W/m 19,3 km/h (3 Bft) 93,62 %
17.10.2019 07:54 14,5 C 13,9 C 12,8 C 94 % 1009,2 hPa 0,0 l/m 0 min 0 min 0 W/m 19,3 km/h (3 Bft) 94,83 %
17.10.2019 07:52 14,5 C 13,9 C 12,8 C 94 % 1009,3 hPa 0,0 l/m 0 min 0 min 0 W/m 12,9 km/h (3 Bft) 97,87 %
17.10.2019 07:50 14,5 C 13,9 C 12,8 C 94 % 1009,2 hPa 0,0 l/m 0 min 0 min 0 W/m 22,5 km/h (4 Bft) 97,87 %
17.10.2019 07:48 14,5 C 13,9 C 12,8 C 94 % 1009,2 hPa 0,0 l/m 0 min 0 min 0 W/m 16,1 km/h (3 Bft) 94,29 %
17.10.2019 07:46 14,5 C 13,9 C 12,8 C 94 % 1009,2 hPa 0,0 l/m 0 min 0 min 0 W/m 22,5 km/h (4 Bft) 97,87 %
17.10.2019 07:44 14,5 C 13,9 C 12,8 C 94 % 1009,2 hPa 0,0 l/m 0 min 0 min 0 W/m 16,1 km/h (3 Bft) 97,87 %
17.10.2019 07:42 14,5 C 13,9 C 12,8 C 94 % 1009,2 hPa 0,0 l/m 0 min 0 min 0 W/m 16,1 km/h (3 Bft) 97,87 %
17.10.2019 07:40 14,5 C 13,9 C 12,8 C 94 % 1009,1 hPa 0,0 l/m 0 min 0 min 0 W/m 12,9 km/h (3 Bft) 98,28 %
17.10.2019 07:38 14,5 C 13,9 C 12,8 C 94 % 1009,1 hPa 0,0 l/m 0 min 0 min 0 W/m 16,1 km/h (3 Bft) 97,14 %
17.10.2019 07:36 14,5 C 13,9 C 12,8 C 94 % 1009,1 hPa 0,0 l/m 0 min 0 min 0 W/m 19,3 km/h (3 Bft) 98,31 %
17.10.2019 07:34 14,5 C 13,9 C 12,8 C 94 % 1009,1 hPa 0,0 l/m 0 min 0 min 0 W/m 12,9 km/h (3 Bft) 95,74 %
17.10.2019 07:32 14,5 C 13,9 C 12,8 C 94 % 1009,1 hPa 0,0 l/m 0 min 0 min 0 W/m 22,5 km/h (4 Bft) 100,00 %
17.10.2019 07:30 14,5 C 13,9 C 12,2 C 94 % 1009,1 hPa 0,0 l/m 0 min 0 min 0 W/m 22,5 km/h (4 Bft) 96,55 %
17.10.2019 07:28 14,5 C 13,9 C 12,8 C 94 % 1009,1 hPa 0,0 l/m 0 min 0 min 0 W/m 22,5 km/h (4 Bft) 97,87 %
17.10.2019 07:26 14,5 C 13,9 C 12,8 C 94 % 1009,0 hPa 0,0 l/m 0 min 0 min 0 W/m 25,7 km/h (4 Bft) 100,00 %
17.10.2019 07:24 14,4 C 13,9 C 12,8 C 94 % 1009,0 hPa 0,0 l/m 0 min 0 min 0 W/m 22,5 km/h (4 Bft) 95,74 %
17.10.2019 07:22 14,4 C 13,9 C 12,8 C 94 % 1009,0 hPa 0,0 l/m 0 min 0 min 0 W/m 16,1 km/h (3 Bft) 98,31 %
17.10.2019 07:20 14,4 C 13,9 C 12,8 C 94 % 1009,1 hPa 0,0 l/m 0 min 0 min 0 W/m 25,7 km/h (4 Bft) 100,00 %
17.10.2019 07:18 14,4 C 13,9 C 12,8 C 94 % 1009,0 hPa 0,0 l/m 0 min 0 min 0 W/m 16,1 km/h (3 Bft) 100,00 %
17.10.2019 07:16 14,4 C 13,9 C 12,8 C 94 % 1009,0 hPa 0,0 l/m 0 min 0 min 0 W/m 16,1 km/h (3 Bft) 97,83 %
17.10.2019 07:14 14,4 C 13,9 C 12,2 C 94 % 1008,9 hPa 0,0 l/m 0 min 0 min 0 W/m 22,5 km/h (4 Bft) 97,87 %
17.10.2019 07:12 14,4 C 13,9 C 12,2 C 94 % 1008,9 hPa 0,0 l/m 0 min 0 min 0 W/m 19,3 km/h (3 Bft) 98,31 %
17.10.2019 07:10 14,4 C 13,9 C 12,2 C 94 % 1008,9 hPa 0,0 l/m 0 min 0 min 0 W/m 19,3 km/h (3 Bft) 97,83 %
17.10.2019 07:08 14,4 C 13,9 C 12,2 C 94 % 1008,9 hPa 0,0 l/m 0 min 0 min 0 W/m 32,2 km/h (5 Bft) 100,00 %
17.10.2019 07:06 14,4 C 13,9 C 12,2 C 94 % 1008,8 hPa 0,0 l/m 0 min 0 min 0 W/m 16,1 km/h (3 Bft) 100,00 %
17.10.2019 07:04 14,3 C 13,9 C 12,2 C 94 % 1008,8 hPa 0,0 l/m 0 min 0 min 0 W/m 22,5 km/h (4 Bft) 96,61 %
17.10.2019 07:02 14,3 C 13,9 C 12,2 C 94 % 1008,8 hPa 0,0 l/m 0 min 0 min 0 W/m 19,3 km/h (3 Bft) 100,00 %
17.10.2019 07:00 14,3 C 13,9 C 12,2 C 94 % 1008,8 hPa 0,0 l/m 0 min 0 min 0 W/m 19,3 km/h (3 Bft) 97,87 %
17.10.2019 06:58 14,3 C 13,9 C 12,2 C 94 % 1008,8 hPa 0,0 l/m 0 min 0 min 0 W/m 19,3 km/h (3 Bft) 98,31 %
17.10.2019 06:56 14,3 C 13,9 C 12,2 C 94 % 1008,7 hPa 0,0 l/m 0 min 0 min 0 W/m 22,5 km/h (4 Bft) 100,00 %
17.10.2019 06:54 14,3 C 13,3 C 12,2 C 94 % 1008,7 hPa 0,0 l/m 0 min 0 min 0 W/m 16,1 km/h (3 Bft) 100,00 %
17.10.2019 06:52 14,3 C 13,3 C 12,2 C 94 % 1008,8 hPa 0,0 l/m 0 min 0 min 0 W/m 19,3 km/h (3 Bft) 100,00 %
17.10.2019 06:50 14,3 C 13,3 C 12,2 C 94 % 1008,8 hPa 0,0 l/m 0 min 0 min 0 W/m 12,9 km/h (3 Bft) 100,00 %
17.10.2019 06:48 14,3 C 13,3 C 12,2 C 94 % 1008,8 hPa 0,0 l/m 0 min 0 min 0 W/m 16,1 km/h (3 Bft) 97,87 %
17.10.2019 06:46 14,3 C 13,3 C 12,2 C 94 % 1008,9 hPa 0,0 l/m 0 min 0 min 0 W/m 22,5 km/h (4 Bft) 98,28 %
17.10.2019 06:44 14,3 C 13,3 C 12,2 C 94 % 1008,8 hPa 0,0 l/m 0 min 0 min 0 W/m 19,3 km/h (3 Bft) 97,22 %
17.10.2019 06:42 14,3 C 13,3 C 12,2 C 94 % 1008,8 hPa 0,0 l/m 0 min 0 min 0 W/m 12,9 km/h (3 Bft) 97,83 %
17.10.2019 06:40 14,3 C 13,3 C 12,2 C 94 % 1008,8 hPa 0,0 l/m 0 min 0 min 0 W/m 19,3 km/h (3 Bft) 97,87 %
17.10.2019 06:38 14,3 C 13,3 C 12,2 C 94 % 1008,8 hPa 0,0 l/m 0 min 0 min 0 W/m 16,1 km/h (3 Bft) 97,87 %
17.10.2019 06:36 14,3 C 13,3 C 12,2 C 94 % 1008,7 hPa 0,0 l/m 0 min 0 min 0 W/m 22,5 km/h (4 Bft) 97,87 %
17.10.2019 06:34 14,3 C 13,3 C 12,2 C 94 % 1008,8 hPa 0,0 l/m 0 min 0 min 0 W/m 29,0 km/h (5 Bft) 97,87 %
17.10.2019 06:32 14,3 C 12,8 C 12,2 C 94 % 1008,8 hPa 0,0 l/m 0 min 0 min 0 W/m 19,3 km/h (3 Bft) 98,28 %
17.10.2019 06:30 14,3 C 13,3 C 12,2 C 94 % 1008,7 hPa 0,0 l/m 0 min 0 min 0 W/m 16,1 km/h (3 Bft) 94,29 %
17.10.2019 06:28 14,3 C 13,3 C 12,2 C 94 % 1008,7 hPa 0,0 l/m 0 min 0 min 0 W/m 25,7 km/h (4 Bft) 98,31 %
17.10.2019 06:26 14,3 C 13,3 C 12,2 C 94 % 1008,7 hPa 0,0 l/m 0 min 0 min 0 W/m 22,5 km/h (4 Bft) 97,14 %
17.10.2019 06:24 14,3 C 13,3 C 12,2 C 94 % 1008,7 hPa 0,0 l/m 0 min 0 min 0 W/m 29,0 km/h (5 Bft) 98,31 %
17.10.2019 06:22 14,3 C 13,3 C 12,2 C 94 % 1008,7 hPa 0,0 l/m 0 min 0 min 0 W/m 19,3 km/h (3 Bft) 94,29 %
17.10.2019 06:20 14,3 C 12,8 C 12,2 C 94 % 1008,6 hPa 0,0 l/m 0 min 0 min 0 W/m 19,3 km/h (3 Bft) 97,83 %
17.10.2019 06:18 14,3 C 12,8 C 12,2 C 95 % 1008,7 hPa 0,0 l/m 0 min 0 min 0 W/m 22,5 km/h (4 Bft) 95,74 %
17.10.2019 06:16 14,3 C 12,8 C 12,2 C 95 % 1008,7 hPa 0,0 l/m 0 min 0 min 0 W/m 16,1 km/h (3 Bft) 100,00 %
17.10.2019 06:14 14,3 C 12,8 C 12,2 C 95 % 1008,7 hPa 0,0 l/m 0 min 0 min 0 W/m 12,9 km/h (3 Bft) 97,87 %
17.10.2019 06:12 14,3 C 12,8 C 12,2 C 95 % 1008,7 hPa 0,0 l/m 0 min 0 min 0 W/m 12,9 km/h (3 Bft) 97,87 %
17.10.2019 06:10 14,3 C 12,8 C 12,2 C 95 % 1008,7 hPa 0,0 l/m 0 min 0 min 0 W/m 16,1 km/h (3 Bft) 97,87 %
17.10.2019 06:08 14,3 C 12,8 C 12,2 C 95 % 1008,7 hPa 0,0 l/m 0 min 0 min 0 W/m 19,3 km/h (3 Bft) 96,94 %
17.10.2019 06:04 14,3 C 12,8 C 12,2 C 95 % 1008,7 hPa 0,0 l/m 0 min 0 min 0 W/m 16,1 km/h (3 Bft) 97,87 %
17.10.2019 06:02 14,3 C 12,8 C 12,2 C 95 % 1008,7 hPa 0,0 l/m 0 min 0 min 0 W/m 16,1 km/h (3 Bft) 95,74 %
17.10.2019 06:00 14,3 C 12,8 C 12,2 C 95 % 1008,7 hPa 0,0 l/m 0 min 0 min 0 W/m 19,3 km/h (3 Bft) 97,83 %
17.10.2019 05:58 14,3 C 12,8 C 12,2 C 95 % 1008,7 hPa 0,0 l/m 0 min 0 min 0 W/m 22,5 km/h (4 Bft) 95,74 %
17.10.2019 05:56 14,3 C 12,8 C 12,2 C 95 % 1008,7 hPa 0,0 l/m 0 min 0 min 0 W/m 22,5 km/h (4 Bft) 95,74 %
17.10.2019 05:54 14,3 C 12,8 C 12,2 C 95 % 1008,7 hPa 0,0 l/m 0 min 0 min 0 W/m 19,3 km/h (3 Bft) 91,49 %
17.10.2019 05:52 14,3 C 12,8 C 12,2 C 95 % 1008,7 hPa 0,0 l/m 0 min 0 min 0 W/m 16,1 km/h (3 Bft) 97,87 %
17.10.2019 05:50 14,3 C 12,8 C 12,2 C 95 % 1008,7 hPa 0,0 l/m 0 min 0 min 0 W/m 19,3 km/h (3 Bft) 97,87 %
17.10.2019 05:48 14,3 C 12,8 C 12,2 C 95 % 1008,7 hPa 0,0 l/m 0 min 0 min 0 W/m 16,1 km/h (3 Bft) 97,37 %
17.10.2019 05:46 14,3 C 12,8 C 12,2 C 95 % 1008,7 hPa 0,0 l/m 0 min 0 min 0 W/m 16,1 km/h (3 Bft) 97,83 %
17.10.2019 05:44 14,3 C 12,8 C 12,2 C 95 % 1008,7 hPa 0,0 l/m 0 min 0 min 0 W/m 25,7 km/h (4 Bft) 97,87 %
17.10.2019 05:42 14,3 C 12,8 C 12,2 C 95 % 1008,7 hPa 0,0 l/m 0 min 0 min 0 W/m 16,1 km/h (3 Bft) 97,87 %
17.10.2019 05:40 14,3 C 12,8 C 12,2 C 95 % 1008,7 hPa 0,0 l/m 0 min 0 min 0 W/m 22,5 km/h (4 Bft) 97,87 %
17.10.2019 05:38 14,3 C 12,8 C 12,2 C 95 % 1008,7 hPa 0,0 l/m 0 min 0 min 0 W/m 16,1 km/h (3 Bft) 96,23 %
17.10.2019 05:36 14,3 C 12,8 C 12,2 C 96 % 1008,7 hPa 0,0 l/m 0 min 0 min 0 W/m 22,5 km/h (4 Bft) 95,74 %
17.10.2019 05:34 14,3 C 12,8 C 12,2 C 96 % 1008,7 hPa 0,0 l/m 0 min 0 min 0 W/m 12,9 km/h (3 Bft) 97,87 %
17.10.2019 05:32 14,3 C 12,8 C 12,2 C 96 % 1008,8 hPa 0,0 l/m 0 min 0 min 0 W/m 19,3 km/h (3 Bft) 97,83 %
17.10.2019 05:30 14,3 C 12,8 C 12,2 C 96 % 1008,9 hPa 0,0 l/m 0 min 0 min 0 W/m 19,3 km/h (3 Bft) 97,87 %
17.10.2019 05:28 14,3 C 12,8 C 12,2 C 96 % 1008,8 hPa 0,0 l/m 0 min 0 min 0 W/m 22,5 km/h (4 Bft) 97,87 %
17.10.2019 05:26 14,2 C 12,8 C 12,2 C 96 % 1008,8 hPa 0,0 l/m 0 min 0 min 0 W/m 25,7 km/h (4 Bft) 97,87 %
17.10.2019 05:24 14,2 C 12,8 C 12,2 C 96 % 1008,6 hPa 0,0 l/m 0 min 0 min 0 W/m 19,3 km/h (3 Bft) 95,74 %
17.10.2019 05:22 14,2 C 12,8 C 12,2 C 96 % 1008,7 hPa 0,0 l/m 0 min 0 min 0 W/m 22,5 km/h (4 Bft) 97,87 %
17.10.2019 05:20 14,2 C 12,8 C 12,2 C 96 % 1008,6 hPa 0,0 l/m 0 min 0 min 0 W/m 25,7 km/h (4 Bft) 97,83 %
17.10.2019 05:18 14,1 C 12,8 C 12,2 C 96 % 1008,6 hPa 0,0 l/m 0 min 0 min 0 W/m 25,7 km/h (4 Bft) 95,74 %
17.10.2019 05:16 14,1 C 12,8 C 12,2 C 96 % 1008,6 hPa 0,0 l/m 0 min 0 min 0 W/m 25,7 km/h (4 Bft) 97,87 %
17.10.2019 05:14 14,1 C 12,8 C 12,2 C 96 % 1008,6 hPa 0,0 l/m 0 min 0 min 0 W/m 19,3 km/h (3 Bft) 100,00 %
17.10.2019 05:12 14,1 C 12,8 C 12,2 C 96 % 1008,6 hPa 0,0 l/m 0 min 0 min 0 W/m 19,3 km/h (3 Bft) 97,87 %
17.10.2019 05:10 14,1 C 12,8 C 12,2 C 96 % 1008,6 hPa 0,0 l/m 0 min 0 min 0 W/m 22,5 km/h (4 Bft) 97,83 %
17.10.2019 05:08 14,1 C 12,8 C 12,2 C 97 % 1008,6 hPa 0,0 l/m 0 min 0 min 0 W/m 19,3 km/h (3 Bft) 97,87 %
17.10.2019 05:06 14,1 C 12,8 C 12,2 C 97 % 1008,6 hPa 0,0 l/m 0 min 0 min 0 W/m 19,3 km/h (3 Bft) 97,87 %
17.10.2019 05:04 14,1 C 12,8 C 12,2 C 97 % 1008,6 hPa 0,0 l/m 0 min 0 min 0 W/m 25,7 km/h (4 Bft) 98,04 %
17.10.2019 05:02 14,0 C 12,8 C 12,2 C 97 % 1008,6 hPa 0,0 l/m 0 min 0 min 0 W/m 22,5 km/h (4 Bft) 97,83 %
17.10.2019 05:00 14,0 C 12,8 C 12,2 C 97 % 1008,5 hPa 0,0 l/m 0 min 0 min 0 W/m 22,5 km/h (4 Bft) 97,87 %
17.10.2019 04:58 14,0 C 12,8 C 12,2 C 97 % 1008,6 hPa 0,0 l/m 0 min 0 min 0 W/m 12,9 km/h (3 Bft) 97,87 %
17.10.2019 04:56 13,9 C 12,8 C 12,2 C 97 % 1008,6 hPa 0,0 l/m 0 min 0 min 0 W/m 16,1 km/h (3 Bft) 97,87 %
17.10.2019 04:54 13,9 C 12,8 C 12,2 C 97 % 1008,6 hPa 0,0 l/m 0 min 0 min 0 W/m 16,1 km/h (3 Bft) 97,87 %
17.10.2019 04:52 13,9 C 12,8 C 12,2 C 97 % 1008,5 hPa 0,0 l/m 0 min 0 min 0 W/m 29,0 km/h (5 Bft) 97,87 %
17.10.2019 04:50 13,9 C 12,8 C 12,2 C 97 % 1008,6 hPa 0,0 l/m 0 min 0 min 0 W/m 22,5 km/h (4 Bft) 97,83 %
17.10.2019 04:48 13,9 C 12,8 C 12,2 C 97 % 1008,7 hPa 0,0 l/m 0 min 0 min 0 W/m 22,5 km/h (4 Bft) 97,87 %
17.10.2019 04:46 13,9 C 12,8 C 12,2 C 97 % 1008,6 hPa 0,0 l/m 0 min 0 min 0 W/m 25,7 km/h (4 Bft) 97,87 %
17.10.2019 04:44 13,9 C 12,8 C 12,2 C 97 % 1008,6 hPa 0,0 l/m 0 min 0 min 0 W/m 12,9 km/h (3 Bft) 97,87 %
17.10.2019 04:42 13,9 C 12,8 C 12,2 C 97 % 1008,6 hPa 0,0 l/m 0 min 0 min 0 W/m 22,5 km/h (4 Bft) 95,74 %
17.10.2019 04:40 13,8 C 12,8 C 12,2 C 97 % 1008,6 hPa 0,0 l/m 0 min 0 min 0 W/m 19,3 km/h (3 Bft) 97,87 %
17.10.2019 04:38 13,8 C 12,8 C 12,2 C 98 % 1008,6 hPa 0,0 l/m 0 min 0 min 0 W/m 19,3 km/h (3 Bft) 97,83 %
17.10.2019 04:36 13,8 C 12,8 C 12,2 C 98 % 1008,6 hPa 0,0 l/m 0 min 0 min 0 W/m 16,1 km/h (3 Bft) 97,87 %
17.10.2019 04:34 13,8 C 12,8 C 12,2 C 98 % 1008,6 hPa 0,0 l/m 0 min 0 min 0 W/m 19,3 km/h (3 Bft) 97,87 %
17.10.2019 04:32 13,8 C 12,8 C 12,2 C 98 % 1008,7 hPa 0,0 l/m 0 min 0 min 0 W/m 32,2 km/h (5 Bft) 97,87 %
17.10.2019 04:30 13,8 C 12,8 C 12,2 C 98 % 1008,6 hPa 0,0 l/m 0 min 0 min 0 W/m 22,5 km/h (4 Bft) 97,87 %
17.10.2019 04:28 13,8 C 12,8 C 12,2 C 98 % 1008,6 hPa 0,0 l/m 0 min 0 min 0 W/m 19,3 km/h (3 Bft) 97,87 %
17.10.2019 04:26 13,8 C 12,8 C 12,2 C 98 % 1008,6 hPa 0,0 l/m 0 min 0 min 0 W/m 22,5 km/h (4 Bft) 95,65 %
17.10.2019 04:24 13,7 C 12,8 C 12,2 C 98 % 1008,6 hPa 0,0 l/m 0 min 0 min 0 W/m 16,1 km/h (3 Bft) 97,87 %
17.10.2019 04:22 13,7 C 12,8 C 12,2 C 98 % 1008,6 hPa 0,0 l/m 0 min 0 min 0 W/m 22,5 km/h (4 Bft) 97,87 %
17.10.2019 04:20 13,7 C 12,8 C 12,2 C 98 % 1008,6 hPa 0,0 l/m 0 min 0 min 0 W/m 16,1 km/h (3 Bft) 97,87 %
17.10.2019 04:18 13,7 C 12,8 C 12,2 C 98 % 1008,6 hPa 0,0 l/m 0 min 0 min 0 W/m 12,9 km/h (3 Bft) 97,87 %
17.10.2019 04:16 13,7 C 12,8 C 12,2 C 98 % 1008,6 hPa 0,0 l/m 0 min 0 min 0 W/m 19,3 km/h (3 Bft) 100,00 %
17.10.2019 04:14 13,7 C 12,8 C 12,2 C 98 % 1008,6 hPa 0,0 l/m 0 min 0 min 0 W/m 12,9 km/h (3 Bft) 100,00 %
17.10.2019 04:12 13,7 C 12,8 C 12,2 C 98 % 1008,5 hPa 0,0 l/m 0 min 0 min 0 W/m 16,1 km/h (3 Bft) 95,74 %
17.10.2019 04:10 13,7 C 12,8 C 12,2 C 98 % 1008,7 hPa 0,0 l/m 0 min 0 min 0 W/m 35,4 km/h (5 Bft) 95,74 %
17.10.2019 04:08 13,7 C 12,8 C 12,2 C 98 % 1008,5 hPa 0,0 l/m 0 min 0 min 0 W/m 25,7 km/h (4 Bft) 97,87 %
17.10.2019 04:06 13,6 C 12,8 C 12,2 C 98 % 1008,6 hPa 0,0 l/m 0 min 0 min 0 W/m 19,3 km/h (3 Bft) 100,00 %
17.10.2019 04:04 13,6 C 12,8 C 12,2 C 98 % 1008,6 hPa 0,0 l/m 0 min 0 min 0 W/m 12,9 km/h (3 Bft) 95,65 %
17.10.2019 04:02 13,6 C 12,8 C 12,2 C 98 % 1008,6 hPa 0,0 l/m 0 min 0 min 0 W/m 22,5 km/h (4 Bft) 100,00 %
17.10.2019 04:00 13,6 C 12,8 C 12,2 C 98 % 1008,6 hPa 0,0 l/m 0 min 0 min 0 W/m 16,1 km/h (3 Bft) 100,00 %
17.10.2019 03:58 13,6 C 12,8 C 12,2 C 98 % 1008,6 hPa 0,0 l/m 0 min 0 min 0 W/m 16,1 km/h (3 Bft) 100,00 %
17.10.2019 03:56 13,6 C 12,8 C 12,2 C 98 % 1008,6 hPa 0,0 l/m 0 min 0 min 0 W/m 16,1 km/h (3 Bft) 100,00 %
17.10.2019 03:54 13,6 C 12,8 C 12,2 C 98 % 1008,6 hPa 0,0 l/m 0 min 0 min 0 W/m 16,1 km/h (3 Bft) 100,00 %
17.10.2019 03:52 13,6 C 12,8 C 12,2 C 98 % 1008,6 hPa 0,0 l/m 0 min 0 min 0 W/m 12,9 km/h (3 Bft) 100,00 %
17.10.2019 03:50 13,6 C 12,8 C 12,2 C 98 % 1008,6 hPa 0,0 l/m 0 min 0 min 0 W/m 6,4 km/h (2 Bft) 100,00 %
17.10.2019 03:48 13,6 C 12,8 C 12,2 C 98 % 1008,5 hPa 0,0 l/m 0 min 0 min 0 W/m 12,9 km/h (3 Bft) 100,00 %
17.10.2019 03:46 13,6 C 12,8 C 12,2 C 98 % 1008,5 hPa 0,0 l/m 0 min 0 min 0 W/m 12,9 km/h (3 Bft) 100,00 %
17.10.2019 03:44 13,6 C 12,8 C 12,2 C 98 % 1008,6 hPa 0,0 l/m 0 min 0 min 0 W/m 12,9 km/h (3 Bft) 100,00 %
17.10.2019 03:42 13,6 C 12,8 C 12,2 C 98 % 1008,6 hPa 0,0 l/m 0 min 0 min 0 W/m 6,4 km/h (2 Bft) 100,00 %
17.10.2019 03:40 13,6 C 12,8 C 12,2 C 98 % 1008,5 hPa 0,0 l/m 0 min 2 min 0 W/m 6,4 km/h (2 Bft) 100,00 %
17.10.2019 03:38 13,6 C 12,2 C 12,2 C 98 % 1008,5 hPa 0,0 l/m 0 min 0 min 0 W/m 6,4 km/h (2 Bft) 97,87 %
17.10.2019 03:36 13,6 C 12,2 C 12,2 C 98 % 1008,5 hPa 0,0 l/m 0 min 0 min 0 W/m 6,4 km/h (2 Bft) 100,00 %
17.10.2019 03:34 13,6 C 12,2 C 12,2 C 98 % 1008,5 hPa 0,0 l/m 0 min 0 min 0 W/m 12,9 km/h (3 Bft) 100,00 %
17.10.2019 03:32 13,6 C 12,2 C 12,2 C 98 % 1008,5 hPa 0,0 l/m 0 min 0 min 0 W/m 16,1 km/h (3 Bft) 100,00 %
17.10.2019 03:30 13,6 C 12,2 C 12,2 C 98 % 1008,5 hPa 0,0 l/m 0 min 0 min 0 W/m 16,1 km/h (3 Bft) 97,83 %
17.10.2019 03:28 13,6 C 12,2 C 12,2 C 98 % 1008,5 hPa 0,0 l/m 0 min 0 min 0 W/m 9,7 km/h (2 Bft) 97,87 %
17.10.2019 03:26 13,6 C 12,2 C 12,2 C 98 % 1008,6 hPa 0,0 l/m 0 min 2 min 0 W/m 6,4 km/h (2 Bft) 97,87 %
17.10.2019 03:24 13,6 C 12,2 C 12,2 C 98 % 1008,6 hPa 0,0 l/m 0 min 0 min 0 W/m 6,4 km/h (2 Bft) 97,87 %
17.10.2019 03:22 13,6 C 12,2 C 12,2 C 98 % 1008,6 hPa 0,0 l/m 0 min 0 min 0 W/m 16,1 km/h (3 Bft) 97,87 %
17.10.2019 03:20 13,6 C 12,2 C 12,2 C 98 % 1008,6 hPa 0,0 l/m 0 min 0 min 0 W/m 12,9 km/h (3 Bft) 95,74 %
17.10.2019 03:18 13,6 C 12,2 C 12,2 C 98 % 1008,6 hPa 0,0 l/m 0 min 0 min 0 W/m 6,4 km/h (2 Bft) 93,62 %
17.10.2019 03:16 13,6 C 12,2 C 11,7 C 98 % 1008,6 hPa 0,0 l/m 0 min 0 min 0 W/m 16,1 km/h (3 Bft) 93,48 %
17.10.2019 03:14 13,6 C 12,2 C 11,7 C 98 % 1008,5 hPa 0,0 l/m 0 min 0 min 0 W/m 19,3 km/h (3 Bft) 95,74 %
17.10.2019 03:12 13,6 C 12,2 C 11,7 C 98 % 1008,6 hPa 0,0 l/m 0 min 0 min 0 W/m 6,4 km/h (2 Bft) 93,62 %
17.10.2019 03:10 13,6 C 12,2 C 11,7 C 98 % 1008,6 hPa 0,0 l/m 0 min 0 min 0 W/m 12,9 km/h (3 Bft) 95,74 %
17.10.2019 03:08 13,6 C 12,2 C 11,7 C 98 % 1008,6 hPa 0,0 l/m 0 min 0 min 0 W/m 12,9 km/h (3 Bft) 93,62 %
17.10.2019 03:06 13,6 C 12,2 C 11,7 C 98 % 1008,5 hPa 0,0 l/m 0 min 2 min 0 W/m 6,4 km/h (2 Bft) 95,65 %
17.10.2019 03:04 13,6 C 12,2 C 11,7 C 98 % 1008,6 hPa 0,0 l/m 0 min 2 min 0 W/m 3,2 km/h (1 Bft) 93,62 %
17.10.2019 03:02 13,6 C 12,2 C 11,7 C 98 % 1008,6 hPa 0,0 l/m 0 min 2 min 0 W/m 6,4 km/h (2 Bft) 93,62 %
17.10.2019 03:00 13,6 C 12,2 C 11,7 C 98 % 1008,6 hPa 0,0 l/m 0 min 0 min 0 W/m 12,9 km/h (3 Bft) 93,62 %
17.10.2019 02:58 13,6 C 12,2 C 11,7 C 98 % 1008,6 hPa 0,0 l/m 0 min 2 min 0 W/m 6,4 km/h (2 Bft) 95,74 %
17.10.2019 02:56 13,6 C 12,2 C 11,7 C 98 % 1008,6 hPa 0,0 l/m 0 min 2 min 0 W/m 16,1 km/h (3 Bft) 95,74 %
17.10.2019 02:54 13,6 C 12,2 C 11,7 C 98 % 1008,6 hPa 0,0 l/m 0 min 2 min 0 W/m 19,3 km/h (3 Bft) 93,48 %
17.10.2019 02:52 13,6 C 12,2 C 11,7 C 98 % 1008,7 hPa 0,0 l/m 0 min 2 min 0 W/m 12,9 km/h (3 Bft) 95,74 %
17.10.2019 02:50 13,6 C 12,2 C 11,7 C 98 % 1008,6 hPa 0,0 l/m 0 min 2 min 0 W/m 16,1 km/h (3 Bft) 93,62 %
17.10.2019 02:48 13,6 C 12,2 C 11,7 C 98 % 1008,7 hPa 0,0 l/m 0 min 0 min 0 W/m 19,3 km/h (3 Bft) 95,74 %
17.10.2019 02:46 13,6 C 12,2 C 11,7 C 98 % 1008,7 hPa 0,0 l/m 0 min 0 min 0 W/m 6,4 km/h (2 Bft) 95,74 %
17.10.2019 02:44 13,6 C 12,2 C 11,7 C 98 % 1008,7 hPa 0,0 l/m 0 min 2 min 0 W/m 12,9 km/h (3 Bft) 91,49 %
17.10.2019 02:42 13,5 C 12,2 C 11,7 C 98 % 1008,7 hPa 0,0 l/m 0 min 2 min 0 W/m 12,9 km/h (3 Bft) 95,65 %
17.10.2019 02:40 13,5 C 12,2 C 11,7 C 98 % 1008,7 hPa 0,0 l/m 0 min 2 min 0 W/m 19,3 km/h (3 Bft) 95,74 %
17.10.2019 02:38 13,5 C 12,2 C 11,7 C 98 % 1008,7 hPa 0,2 l/m 0 min 2 min 0 W/m 12,9 km/h (3 Bft) 97,37 %
17.10.2019 02:36 13,5 C 12,2 C 11,7 C 98 % 1008,7 hPa 0,0 l/m 0 min 0 min 0 W/m 12,9 km/h (3 Bft) 97,87 %
17.10.2019 02:34 13,5 C 12,2 C 11,7 C 98 % 1008,7 hPa 0,0 l/m 0 min 0 min 0 W/m 6,4 km/h (2 Bft) 93,62 %
17.10.2019 02:32 13,5 C 12,2 C 11,7 C 98 % 1008,7 hPa 0,0 l/m 0 min 0 min 0 W/m 16,1 km/h (3 Bft) 100,00 %
17.10.2019 02:30 13,5 C 12,2 C 11,7 C 98 % 1008,7 hPa 0,0 l/m 0 min 2 min 0 W/m 16,1 km/h (3 Bft) 100,00 %
17.10.2019 02:28 13,4 C 12,2 C 11,7 C 98 % 1008,7 hPa 0,0 l/m 0 min 2 min 0 W/m 6,4 km/h (2 Bft) 100,00 %
17.10.2019 02:26 13,5 C 12,2 C 11,7 C 98 % 1008,7 hPa 0,0 l/m 0 min 2 min 0 W/m 12,9 km/h (3 Bft) 100,00 %
17.10.2019 02:24 13,5 C 12,2 C 11,7 C 98 % 1008,7 hPa 0,0 l/m 0 min 2 min 0 W/m 12,9 km/h (3 Bft) 97,87 %
17.10.2019 02:22 13,5 C 12,2 C 11,7 C 98 % 1008,7 hPa 0,0 l/m 0 min 2 min 0 W/m 6,4 km/h (2 Bft) 100,00 %
17.10.2019 02:20 13,5 C 12,2 C 11,7 C 98 % 1008,7 hPa 0,2 l/m 0 min 2 min 0 W/m 12,9 km/h (3 Bft) 97,87 %
17.10.2019 02:18 13,5 C 12,2 C 11,7 C 98 % 1008,7 hPa 0,0 l/m 0 min 2 min 0 W/m 12,9 km/h (3 Bft) 100,00 %
17.10.2019 02:16 13,5 C 12,2 C 11,7 C 98 % 1008,7 hPa 0,0 l/m 0 min 0 min 0 W/m 16,1 km/h (3 Bft) 100,00 %
17.10.2019 02:14 13,5 C 12,2 C 11,7 C 98 % 1008,7 hPa 0,0 l/m 0 min 0 min 0 W/m 12,9 km/h (3 Bft) 97,87 %
17.10.2019 02:12 13,5 C 12,2 C 11,7 C 98 % 1008,7 hPa 0,0 l/m 0 min 0 min 0 W/m 6,4 km/h (2 Bft) 95,74 %
17.10.2019 02:10 13,5 C 12,2 C 11,7 C 98 % 1008,7 hPa 0,0 l/m 0 min 0 min 0 W/m 12,9 km/h (3 Bft) 97,87 %
17.10.2019 02:08 13,5 C 12,2 C 11,7 C 98 % 1008,7 hPa 0,0 l/m 0 min 0 min 0 W/m 12,9 km/h (3 Bft) 97,87 %
17.10.2019 02:06 13,5 C 12,2 C 11,7 C 97 % 1008,7 hPa 0,0 l/m 0 min 2 min 0 W/m 3,2 km/h (1 Bft) 97,87 %
17.10.2019 02:04 13,5 C 12,2 C 11,7 C 97 % 1008,7 hPa 0,0 l/m 0 min 2 min 0 W/m 6,4 km/h (2 Bft) 97,83 %
17.10.2019 02:02 13,5 C 12,2 C 11,7 C 97 % 1008,7 hPa 0,0 l/m 0 min 2 min 0 W/m 6,4 km/h (2 Bft) 97,87 %
17.10.2019 02:00 13,6 C 12,2 C 11,7 C 97 % 1008,7 hPa 0,0 l/m 0 min 0 min 0 W/m 16,1 km/h (3 Bft) 100,00 %
17.10.2019 01:58 13,6 C 12,2 C 11,7 C 97 % 1008,7 hPa 0,0 l/m 0 min 0 min 0 W/m 16,1 km/h (3 Bft) 97,87 %
17.10.2019 01:56 13,6 C 12,2 C 11,7 C 97 % 1008,7 hPa 0,0 l/m 0 min 2 min 0 W/m 6,4 km/h (2 Bft) 95,74 %
17.10.2019 01:54 13,6 C 12,2 C 11,7 C 97 % 1008,7 hPa 0,0 l/m 0 min 2 min 0 W/m 6,4 km/h (2 Bft) 97,87 %
17.10.2019 01:52 13,6 C 12,2 C 11,7 C 97 % 1008,7 hPa 0,0 l/m 0 min 2 min 0 W/m 6,4 km/h (2 Bft) 97,83 %
17.10.2019 01:50 13,6 C 12,2 C 11,7 C 97 % 1008,7 hPa 0,0 l/m 0 min 2 min 0 W/m 6,4 km/h (2 Bft) 95,74 %
17.10.2019 01:48 13,6 C 12,2 C 11,7 C 97 % 1008,7 hPa 0,0 l/m 0 min 2 min 0 W/m 12,9 km/h (3 Bft) 97,87 %
17.10.2019 01:46 13,6 C 12,2 C 11,7 C 97 % 1008,7 hPa 0,0 l/m 0 min 0 min 0 W/m 16,1 km/h (3 Bft) 97,87 %
17.10.2019 01:44 13,6 C 12,2 C 11,7 C 97 % 1008,7 hPa 0,0 l/m 0 min 2 min 0 W/m 6,4 km/h (2 Bft) 97,87 %
17.10.2019 01:42 13,6 C 12,2 C 11,7 C 97 % 1008,7 hPa 0,0 l/m 0 min 2 min 0 W/m 12,9 km/h (3 Bft) 97,87 %
17.10.2019 01:40 13,6 C 12,2 C 11,7 C 97 % 1008,7 hPa 0,0 l/m 0 min 2 min 0 W/m 6,4 km/h (2 Bft) 97,83 %
17.10.2019 01:38 13,6 C 12,2 C 11,7 C 97 % 1008,7 hPa 0,0 l/m 0 min 0 min 0 W/m 12,9 km/h (3 Bft) 97,87 %
17.10.2019 01:36 13,6 C 12,2 C 11,7 C 97 % 1008,7 hPa 0,0 l/m 0 min 0 min 0 W/m 12,9 km/h (3 Bft) 97,87 %
17.10.2019 01:34 13,6 C 12,2 C 11,7 C 97 % 1008,8 hPa 0,0 l/m 0 min 0 min 0 W/m 6,4 km/h (2 Bft) 97,87 %
17.10.2019 01:32 13,6 C 12,2 C 11,7 C 97 % 1008,7 hPa 0,0 l/m 0 min 0 min 0 W/m 6,4 km/h (2 Bft) 97,87 %
17.10.2019 01:30 13,7 C 12,2 C 11,7 C 97 % 1008,7 hPa 0,0 l/m 0 min 0 min 0 W/m 6,4 km/h (2 Bft) 97,83 %
17.10.2019 01:28 13,7 C 12,2 C 11,7 C 97 % 1008,7 hPa 0,0 l/m 0 min 0 min 0 W/m 6,4 km/h (2 Bft) 97,87 %
17.10.2019 01:26 13,7 C 12,2 C 11,7 C 97 % 1008,7 hPa 0,0 l/m 0 min 0 min 0 W/m 16,1 km/h (3 Bft) 97,87 %
17.10.2019 01:24 13,7 C 12,2 C 11,7 C 97 % 1008,7 hPa 0,0 l/m 0 min 0 min 0 W/m 6,4 km/h (2 Bft) 100,00 %
17.10.2019 01:22 13,7 C 12,2 C 11,7 C 97 % 1008,7 hPa 0,0 l/m 0 min 2 min 0 W/m 12,9 km/h (3 Bft) 97,87 %
17.10.2019 01:20 13,7 C 12,2 C 11,7 C 97 % 1008,7 hPa 0,0 l/m 0 min 2 min 0 W/m 6,4 km/h (2 Bft) 100,00 %
17.10.2019 01:18 13,7 C 12,2 C 11,7 C 97 % 1008,8 hPa 0,0 l/m 0 min 2 min 0 W/m 12,9 km/h (3 Bft) 100,00 %
17.10.2019 01:16 13,7 C 12,2 C 11,7 C 97 % 1008,7 hPa 0,0 l/m 0 min 0 min 0 W/m 9,7 km/h (2 Bft) 100,00 %
17.10.2019 01:14 13,7 C 12,2 C 11,7 C 97 % 1008,7 hPa 0,0 l/m 0 min 0 min 0 W/m 6,4 km/h (2 Bft) 97,87 %
17.10.2019 01:12 13,7 C 12,2 C 11,7 C 97 % 1008,7 hPa 0,0 l/m 0 min 2 min 0 W/m 6,4 km/h (2 Bft) 100,00 %
17.10.2019 01:10 13,7 C 12,2 C 11,7 C 97 % 1008,7 hPa 0,2 l/m 0 min 2 min 0 W/m 6,4 km/h (2 Bft) 100,00 %
17.10.2019 01:08 13,7 C 12,2 C 11,7 C 97 % 1008,7 hPa 0,0 l/m 0 min 2 min 0 W/m 6,4 km/h (2 Bft) 100,00 %
17.10.2019 01:06 13,7 C 12,2 C 11,7 C 97 % 1008,7 hPa 0,0 l/m 0 min 2 min 0 W/m 6,4 km/h (2 Bft) 100,00 %
17.10.2019 01:04 13,7 C 12,2 C 11,7 C 97 % 1008,7 hPa 0,0 l/m 0 min 0 min 0 W/m 3,2 km/h (1 Bft) 95,74 %
17.10.2019 01:02 13,7 C 12,2 C 11,7 C 96 % 1008,7 hPa 0,0 l/m 0 min 0 min 0 W/m 6,4 km/h (2 Bft) 100,00 %
17.10.2019 01:00 13,7 C 12,2 C 11,7 C 96 % 1008,7 hPa 0,0 l/m 0 min 0 min 0 W/m 12,9 km/h (3 Bft) 100,00 %
17.10.2019 00:58 13,7 C 12,2 C 11,7 C 96 % 1008,7 hPa 0,0 l/m 0 min 0 min 0 W/m 6,4 km/h (2 Bft) 95,74 %
17.10.2019 00:56 13,7 C 12,2 C 11,7 C 96 % 1008,7 hPa 0,0 l/m 0 min 2 min 0 W/m 3,2 km/h (1 Bft) 97,87 %
17.10.2019 00:54 13,7 C 12,2 C 11,7 C 96 % 1008,8 hPa 0,0 l/m 0 min 0 min 0 W/m 6,4 km/h (2 Bft) 100,00 %
17.10.2019 00:52 13,8 C 12,2 C 11,7 C 96 % 1008,8 hPa 0,0 l/m 0 min 2 min 0 W/m 6,4 km/h (2 Bft) 89,36 %
17.10.2019 00:50 13,8 C 12,2 C 11,7 C 96 % 1008,8 hPa 0,0 l/m 0 min 2 min 0 W/m 12,9 km/h (3 Bft) 95,74 %
17.10.2019 00:48 13,8 C 12,2 C 11,7 C 96 % 1008,9 hPa 0,0 l/m 0 min 2 min 0 W/m 16,1 km/h (3 Bft) 100,00 %
17.10.2019 00:46 13,8 C 12,2 C 11,7 C 96 % 1008,8 hPa 0,0 l/m 0 min 2 min 0 W/m 16,1 km/h (3 Bft) 97,87 %
17.10.2019 00:44 13,8 C 12,2 C 11,7 C 96 % 1008,8 hPa 0,0 l/m 0 min 2 min 0 W/m 12,9 km/h (3 Bft) 97,87 %
17.10.2019 00:42 13,8 C 12,2 C 11,7 C 96 % 1008,8 hPa 0,0 l/m 0 min 2 min 0 W/m 16,1 km/h (3 Bft) 93,48 %
17.10.2019 00:40 13,8 C 12,2 C 11,7 C 96 % 1008,8 hPa 0,0 l/m 0 min 2 min 0 W/m 6,4 km/h (2 Bft) 93,62 %
17.10.2019 00:38 13,8 C 12,2 C 11,7 C 96 % 1008,8 hPa 0,0 l/m 0 min 2 min 0 W/m 6,4 km/h (2 Bft) 93,62 %
17.10.2019 00:36 13,8 C 12,2 C 11,7 C 96 % 1008,8 hPa 0,0 l/m 0 min 2 min 0 W/m 12,9 km/h (3 Bft) 91,49 %
17.10.2019 00:34 13,8 C 12,2 C 11,7 C 96 % 1008,8 hPa 0,0 l/m 0 min 2 min 0 W/m 12,9 km/h (3 Bft) 97,87 %
17.10.2019 00:32 13,8 C 12,2 C 11,7 C 96 % 1008,8 hPa 0,0 l/m 0 min 2 min 0 W/m 6,4 km/h (2 Bft) 97,83 %
17.10.2019 00:30 13,8 C 12,2 C 11,7 C 96 % 1008,8 hPa 0,0 l/m 0 min 2 min 0 W/m 6,4 km/h (2 Bft) 97,87 %
17.10.2019 00:28 13,8 C 12,2 C 11,7 C 96 % 1008,9 hPa 0,0 l/m 0 min 0 min 0 W/m 12,9 km/h (3 Bft) 95,74 %
17.10.2019 00:26 13,8 C 12,2 C 11,7 C 96 % 1008,9 hPa 0,0 l/m 0 min 0 min 0 W/m 6,4 km/h (2 Bft) 93,62 %
17.10.2019 00:24 13,8 C 12,2 C 11,7 C 96 % 1008,9 hPa 0,0 l/m 0 min 2 min 0 W/m 12,9 km/h (3 Bft) 87,23 %
17.10.2019 00:22 13,8 C 12,2 C 11,7 C 96 % 1008,8 hPa 0,0 l/m 0 min 0 min 0 W/m 6,4 km/h (2 Bft) 93,62 %
17.10.2019 00:20 13,8 C 12,2 C 11,7 C 96 % 1008,8 hPa 0,0 l/m 0 min 0 min 0 W/m 12,9 km/h (3 Bft) 93,48 %
17.10.2019 00:18 13,9 C 12,2 C 11,7 C 96 % 1008,8 hPa 0,2 l/m 0 min 0 min 0 W/m 12,9 km/h (3 Bft) 97,87 %
17.10.2019 00:16 13,8 C 12,2 C 11,7 C 96 % 1008,9 hPa 0,0 l/m 0 min 2 min 0 W/m 12,9 km/h (3 Bft) 97,87 %
17.10.2019 00:14 13,9 C 12,2 C 11,7 C 96 % 1008,8 hPa 0,0 l/m 0 min 0 min 0 W/m 3,2 km/h (1 Bft) 97,87 %
17.10.2019 00:12 13,9 C 12,2 C 11,7 C 96 % 1008,9 hPa 0,0 l/m 0 min 0 min 0 W/m 12,9 km/h (3 Bft) 97,87 %
17.10.2019 00:10 13,9 C 12,2 C 11,7 C 96 % 1008,8 hPa 0,0 l/m 0 min 2 min 0 W/m 6,4 km/h (2 Bft) 93,62 %
17.10.2019 00:08 13,9 C 12,2 C 11,7 C 96 % 1008,9 hPa 0,0 l/m 0 min 0 min 0 W/m 16,1 km/h (3 Bft) 94,62 %
17.10.2019 00:04 13,9 C 12,2 C 11,7 C 95 % 1008,8 hPa 0,0 l/m 0 min 0 min 0 W/m 12,9 km/h (3 Bft) 93,62 %
17.10.2019 00:02 13,9 C 12,2 C 11,7 C 95 % 1008,8 hPa 0,0 l/m 0 min 0 min 0 W/m 12,9 km/h (3 Bft) 95,56 %
17.10.2019 00:00 13,9 C 12,2 C 11,7 C 95 % 1008,8 hPa 0,0 l/m 0 min 2 min 0 W/m 12,9 km/h (3 Bft) 97,87 %
16.10.2019 23:58 13,9 C 12,2 C 11,7 C 95 % 1008,8 hPa 0,0 l/m 0 min 2 min 0 W/m 12,9 km/h (3 Bft) 97,87 %
16.10.2019 23:56 14,0 C 12,2 C 11,7 C 95 % 1008,8 hPa 0,0 l/m 0 min 2 min 0 W/m 6,4 km/h (2 Bft) 95,65 %
16.10.2019 23:54 14,0 C 12,2 C 11,7 C 95 % 1008,8 hPa 0,0 l/m 0 min 2 min 0 W/m 12,9 km/h (3 Bft) 95,74 %
16.10.2019 23:52 14,0 C 12,2 C 11,7 C 95 % 1008,9 hPa 0,0 l/m 0 min 2 min 0 W/m 6,4 km/h (2 Bft) 97,87 %
16.10.2019 23:50 14,0 C 12,2 C 11,7 C 95 % 1008,9 hPa 0,0 l/m 0 min 2 min 0 W/m 6,4 km/h (2 Bft) 97,87 %
16.10.2019 23:48 14,0 C 12,2 C 11,7 C 95 % 1009,0 hPa 0,0 l/m 0 min 2 min 0 W/m 12,9 km/h (3 Bft) 97,87 %
16.10.2019 23:46 14,0 C 12,2 C 11,7 C 95 % 1008,9 hPa 0,0 l/m 0 min 2 min 0 W/m 16,1 km/h (3 Bft) 97,87 %
16.10.2019 23:44 14,1 C 12,2 C 11,7 C 95 % 1008,9 hPa 0,0 l/m 0 min 2 min 0 W/m 16,1 km/h (3 Bft) 97,83 %
16.10.2019 23:42 14,1 C 12,2 C 11,7 C 95 % 1009,0 hPa 0,2 l/m 0 min 2 min 0 W/m 22,5 km/h (4 Bft) 97,87 %
16.10.2019 23:40 14,1 C 12,2 C 11,7 C 95 % 1009,0 hPa 0,0 l/m 0 min 2 min 0 W/m 6,4 km/h (2 Bft) 95,74 %
16.10.2019 23:38 14,1 C 12,2 C 11,7 C 95 % 1009,0 hPa 0,0 l/m 0 min 2 min 0 W/m 16,1 km/h (3 Bft) 93,62 %
16.10.2019 23:36 14,1 C 12,2 C 11,7 C 95 % 1009,0 hPa 0,0 l/m 0 min 2 min 0 W/m 16,1 km/h (3 Bft) 93,62 %
16.10.2019 23:34 14,1 C 12,2 C 11,7 C 95 % 1009,1 hPa 0,0 l/m 0 min 2 min 0 W/m 16,1 km/h (3 Bft) 97,83 %
16.10.2019 23:32 14,1 C 12,2 C 11,7 C 95 % 1009,0 hPa 0,0 l/m 0 min 2 min 0 W/m 16,1 km/h (3 Bft) 93,62 %
16.10.2019 23:30 14,1 C 12,2 C 11,7 C 95 % 1009,1 hPa 0,0 l/m 0 min 2 min 0 W/m 19,3 km/h (3 Bft) 93,62 %
16.10.2019 23:28 14,1 C 12,2 C 11,7 C 95 % 1009,0 hPa 0,2 l/m 0 min 2 min 0 W/m 22,5 km/h (4 Bft) 95,74 %
16.10.2019 23:26 14,1 C 12,2 C 11,7 C 95 % 1009,1 hPa 0,0 l/m 0 min 2 min 0 W/m 12,9 km/h (3 Bft) 97,87 %
16.10.2019 23:24 14,1 C 12,2 C 11,7 C 95 % 1009,1 hPa 0,0 l/m 0 min 2 min 0 W/m 16,1 km/h (3 Bft) 97,87 %
16.10.2019 23:22 14,1 C 12,2 C 11,7 C 95 % 1009,1 hPa 0,0 l/m 0 min 2 min 0 W/m 16,1 km/h (3 Bft) 95,65 %
16.10.2019 23:20 14,1 C 12,2 C 11,7 C 95 % 1009,1 hPa 0,0 l/m 0 min 2 min 0 W/m 19,3 km/h (3 Bft) 95,74 %
16.10.2019 23:18 14,1 C 12,2 C 11,7 C 95 % 1009,1 hPa 0,0 l/m 0 min 2 min 0 W/m 16,1 km/h (3 Bft) 97,87 %
16.10.2019 23:16 14,1 C 12,2 C 11,7 C 95 % 1009,0 hPa 0,0 l/m 0 min 2 min 0 W/m 12,9 km/h (3 Bft) 95,74 %
16.10.2019 23:14 14,2 C 12,2 C 11,7 C 95 % 1009,1 hPa 0,0 l/m 0 min 2 min 0 W/m 16,1 km/h (3 Bft) 93,62 %
16.10.2019 23:12 14,2 C 12,2 C 11,7 C 95 % 1009,1 hPa 0,0 l/m 0 min 2 min 0 W/m 12,9 km/h (3 Bft) 95,74 %
16.10.2019 23:10 14,2 C 12,2 C 11,7 C 95 % 1009,1 hPa 0,0 l/m 0 min 2 min 0 W/m 19,3 km/h (3 Bft) 97,83 %
16.10.2019 23:08 14,2 C 12,2 C 11,7 C 95 % 1009,0 hPa 0,0 l/m 0 min 2 min 0 W/m 16,1 km/h (3 Bft) 97,87 %
16.10.2019 23:06 14,2 C 12,2 C 11,7 C 95 % 1009,0 hPa 0,2 l/m 0 min 2 min 0 W/m 16,1 km/h (3 Bft) 91,49 %
16.10.2019 23:04 14,2 C 12,2 C 11,7 C 95 % 1009,0 hPa 0,0 l/m 0 min 2 min 0 W/m 16,1 km/h (3 Bft) 97,87 %
16.10.2019 23:02 14,2 C 12,2 C 11,7 C 95 % 1009,0 hPa 0,0 l/m 0 min 2 min 0 W/m 12,9 km/h (3 Bft) 89,36 %
16.10.2019 23:00 14,2 C 12,2 C 11,7 C 95 % 1009,0 hPa 0,0 l/m 0 min 2 min 0 W/m 16,1 km/h (3 Bft) 97,87 %
16.10.2019 22:58 14,2 C 12,2 C 11,7 C 95 % 1009,0 hPa 0,0 l/m 0 min 2 min 0 W/m 19,3 km/h (3 Bft) 97,83 %
16.10.2019 22:56 14,2 C 12,2 C 11,7 C 95 % 1009,0 hPa 0,0 l/m 0 min 2 min 0 W/m 12,9 km/h (3 Bft) 97,87 %
16.10.2019 22:54 14,2 C 12,2 C 11,7 C 95 % 1009,0 hPa 0,0 l/m 0 min 2 min 0 W/m 12,9 km/h (3 Bft) 97,87 %
16.10.2019 22:52 14,2 C 12,2 C 11,7 C 95 % 1009,0 hPa 0,0 l/m 0 min 2 min 0 W/m 22,5 km/h (4 Bft) 97,87 %
16.10.2019 22:50 14,2 C 12,2 C 11,7 C 95 % 1009,0 hPa 0,0 l/m 0 min 2 min 0 W/m 12,9 km/h (3 Bft) 97,87 %
16.10.2019 22:48 14,2 C 12,2 C 11,7 C 95 % 1009,0 hPa 0,0 l/m 0 min 2 min 0 W/m 12,9 km/h (3 Bft) 97,83 %
16.10.2019 22:46 14,2 C 12,2 C 11,7 C 95 % 1009,0 hPa 0,0 l/m 0 min 2 min 0 W/m 12,9 km/h (3 Bft) 50,00 %
16.10.2019 22:44 14,2 C 12,2 C 11,7 C 95 % 1009,0 hPa 0,0 l/m 0 min 2 min 0 W/m 6,4 km/h (2 Bft) 97,87 %
16.10.2019 22:42 14,2 C 12,2 C 11,7 C 95 % 1009,0 hPa 0,0 l/m 0 min 2 min 0 W/m 22,5 km/h (4 Bft) 97,87 %
16.10.2019 22:40 14,2 C 12,2 C 11,7 C 95 % 1009,0 hPa 0,0 l/m 0 min 2 min 0 W/m 6,4 km/h (2 Bft) 97,87 %
16.10.2019 22:38 14,1 C 12,2 C 11,7 C 95 % 1009,0 hPa 0,2 l/m 0 min 2 min 0 W/m 6,4 km/h (2 Bft) 96,43 %
16.10.2019 22:36 14,1 C 12,2 C 11,7 C 95 % 1009,0 hPa 0,0 l/m 0 min 2 min 0 W/m 12,9 km/h (3 Bft) 100,00 %
16.10.2019 22:34 14,1 C 12,2 C 11,7 C 95 % 1009,0 hPa 0,0 l/m 0 min 2 min 0 W/m 22,5 km/h (4 Bft) 97,83 %
16.10.2019 22:32 14,1 C 12,2 C 11,7 C 95 % 1009,0 hPa 0,0 l/m 0 min 2 min 0 W/m 19,3 km/h (3 Bft) 95,74 %
16.10.2019 22:30 14,1 C 12,2 C 12,2 C 95 % 1009,0 hPa 0,0 l/m 0 min 2 min 0 W/m 12,9 km/h (3 Bft) 97,87 %
16.10.2019 22:28 14,1 C 12,2 C 12,2 C 96 % 1008,9 hPa 0,0 l/m 0 min 2 min 0 W/m 16,1 km/h (3 Bft) 97,87 %
16.10.2019 22:26 14,1 C 12,8 C 12,2 C 96 % 1009,0 hPa 0,0 l/m 0 min 2 min 0 W/m 16,1 km/h (3 Bft) 97,87 %
16.10.2019 22:24 14,0 C 12,8 C 12,2 C 96 % 1009,0 hPa 0,0 l/m 0 min 2 min 0 W/m 9,7 km/h (2 Bft) 100,00 %
16.10.2019 22:22 14,0 C 12,8 C 12,2 C 96 % 1009,0 hPa 0,0 l/m 0 min 2 min 0 W/m 16,1 km/h (3 Bft) 100,00 %
16.10.2019 22:20 14,0 C 12,8 C 12,2 C 96 % 1009,0 hPa 0,0 l/m 0 min 2 min 0 W/m 12,9 km/h (3 Bft) 97,87 %
16.10.2019 22:18 13,9 C 12,8 C 12,2 C 96 % 1009,0 hPa 0,0 l/m 0 min 0 min 0 W/m 16,1 km/h (3 Bft) 97,87 %
16.10.2019 22:16 13,9 C 12,8 C 12,2 C 96 % 1009,0 hPa 0,0 l/m 0 min 2 min 0 W/m 12,9 km/h (3 Bft) 97,87 %
16.10.2019 22:14 13,9 C 12,8 C 12,2 C 96 % 1009,0 hPa 0,0 l/m 0 min 0 min 0 W/m 19,3 km/h (3 Bft) 100,00 %
16.10.2019 22:12 13,9 C 12,8 C 12,2 C 96 % 1009,0 hPa 0,0 l/m 0 min 2 min 0 W/m 22,5 km/h (4 Bft) 100,00 %
16.10.2019 22:10 13,9 C 12,8 C 12,2 C 96 % 1009,0 hPa 0,0 l/m 0 min 2 min 0 W/m 12,9 km/h (3 Bft) 97,83 %
16.10.2019 22:08 13,9 C 12,8 C 12,2 C 96 % 1009,0 hPa 0,0 l/m 0 min 0 min 0 W/m 6,4 km/h (2 Bft) 100,00 %
16.10.2019 22:06 13,8 C 12,8 C 12,2 C 96 % 1009,0 hPa 0,0 l/m 0 min 0 min 0 W/m 19,3 km/h (3 Bft) 97,87 %
16.10.2019 22:04 13,8 C 12,8 C 12,2 C 96 % 1009,0 hPa 0,0 l/m 0 min 2 min 0 W/m 16,1 km/h (3 Bft) 97,87 %
16.10.2019 22:02 13,8 C 12,8 C 12,2 C 96 % 1009,0 hPa 0,0 l/m 0 min 0 min 0 W/m 9,7 km/h (2 Bft) 95,74 %
16.10.2019 22:00 13,8 C 12,8 C 12,2 C 97 % 1009,0 hPa 0,0 l/m 0 min 0 min 0 W/m 22,5 km/h (4 Bft) 97,83 %
16.10.2019 21:58 13,8 C 12,8 C 12,2 C 97 % 1008,9 hPa 0,0 l/m 0 min 0 min 0 W/m 16,1 km/h (3 Bft) 97,87 %
16.10.2019 21:56 13,8 C 12,8 C 12,2 C 97 % 1009,0 hPa 0,0 l/m 0 min 0 min 0 W/m 19,3 km/h (3 Bft) 97,87 %
16.10.2019 21:54 13,8 C 12,8 C 12,2 C 97 % 1008,9 hPa 0,0 l/m 0 min 0 min 0 W/m 16,1 km/h (3 Bft) 97,87 %
16.10.2019 21:52 13,8 C 12,8 C 12,2 C 97 % 1008,9 hPa 0,0 l/m 0 min 0 min 0 W/m 12,9 km/h (3 Bft) 97,87 %
16.10.2019 21:50 13,8 C 12,8 C 12,2 C 97 % 1009,0 hPa 0,0 l/m 0 min 0 min 0 W/m 6,4 km/h (2 Bft) 97,87 %
16.10.2019 21:48 13,8 C 12,8 C 12,2 C 97 % 1008,9 hPa 0,0 l/m 0 min 0 min 0 W/m 12,9 km/h (3 Bft) 97,83 %
16.10.2019 21:46 13,8 C 12,8 C 12,2 C 97 % 1008,9 hPa 0,0 l/m 0 min 0 min 0 W/m 19,3 km/h (3 Bft) 93,62 %
16.10.2019 21:44 13,8 C 12,8 C 12,2 C 97 % 1008,9 hPa 0,0 l/m 0 min 0 min 0 W/m 12,9 km/h (3 Bft) 97,87 %
16.10.2019 21:42 13,8 C 12,8 C 12,2 C 97 % 1008,9 hPa 0,0 l/m 0 min 0 min 0 W/m 12,9 km/h (3 Bft) 97,87 %
16.10.2019 21:40 13,8 C 12,8 C 12,2 C 97 % 1008,9 hPa 0,0 l/m 0 min 0 min 0 W/m 6,4 km/h (2 Bft) 97,87 %
16.10.2019 21:38 13,8 C 12,8 C 12,2 C 97 % 1008,9 hPa 0,0 l/m 0 min 0 min 0 W/m 6,4 km/h (2 Bft) 98,11 %
16.10.2019 21:36 13,8 C 12,8 C 12,2 C 97 % 1009,0 hPa 0,0 l/m 0 min 0 min 0 W/m 12,9 km/h (3 Bft) 95,74 %
16.10.2019 21:34 13,8 C 12,8 C 12,2 C 97 % 1008,9 hPa 0,0 l/m 0 min 0 min 0 W/m 6,4 km/h (2 Bft) 97,83 %
16.10.2019 21:32 13,8 C 12,8 C 12,2 C 97 % 1008,9 hPa 0,0 l/m 0 min 0 min 0 W/m 12,9 km/h (3 Bft) 97,87 %
16.10.2019 21:30 13,8 C 12,8 C 12,2 C 97 % 1009,0 hPa 0,0 l/m 0 min 0 min 0 W/m 16,1 km/h (3 Bft) 95,74 %
16.10.2019 21:28 13,8 C 12,8 C 12,2 C 97 % 1009,0 hPa 0,0 l/m 0 min 0 min 0 W/m 19,3 km/h (3 Bft) 97,87 %
16.10.2019 21:26 13,8 C 12,2 C 12,2 C 97 % 1008,9 hPa 0,0 l/m 0 min 0 min 0 W/m 12,9 km/h (3 Bft) 97,87 %
16.10.2019 21:24 13,8 C 12,2 C 12,2 C 96 % 1008,9 hPa 0,0 l/m 0 min 0 min 0 W/m 6,4 km/h (2 Bft) 97,83 %
16.10.2019 21:22 13,8 C 12,2 C 12,2 C 96 % 1008,9 hPa 0,0 l/m 0 min 0 min 0 W/m 12,9 km/h (3 Bft) 97,87 %
16.10.2019 21:20 13,8 C 12,2 C 12,2 C 96 % 1008,9 hPa 0,0 l/m 0 min 0 min 0 W/m 16,1 km/h (3 Bft) 100,00 %
16.10.2019 21:18 13,8 C 12,2 C 12,2 C 96 % 1008,9 hPa 0,0 l/m 0 min 0 min 0 W/m 6,4 km/h (2 Bft) 100,00 %
16.10.2019 21:16 13,8 C 12,2 C 12,2 C 96 % 1008,9 hPa 0,0 l/m 0 min 0 min 0 W/m 6,4 km/h (2 Bft) 100,00 %
16.10.2019 21:14 13,8 C 12,2 C 12,2 C 96 % 1008,9 hPa 0,0 l/m 0 min 0 min 0 W/m 6,4 km/h (2 Bft) 100,00 %
16.10.2019 21:12 13,8 C 12,2 C 12,2 C 96 % 1008,9 hPa 0,0 l/m 0 min 0 min 0 W/m 0,0 km/h (0 Bft) 100,00 %
16.10.2019 21:10 13,8 C 12,2 C 12,2 C 96 % 1008,9 hPa 0,0 l/m 0 min 0 min 0 W/m 6,4 km/h (2 Bft) 100,00 %
16.10.2019 21:08 13,8 C 12,2 C 12,2 C 96 % 1008,9 hPa 0,0 l/m 0 min 0 min 0 W/m 12,9 km/h (3 Bft) 100,00 %
16.10.2019 21:06 13,8 C 12,2 C 12,2 C 96 % 1009,0 hPa 0,0 l/m 0 min 0 min 0 W/m 6,4 km/h (2 Bft) 100,00 %
16.10.2019 21:04 13,8 C 12,2 C 12,2 C 96 % 1008,9 hPa 0,0 l/m 0 min 0 min 0 W/m 19,3 km/h (3 Bft) 100,00 %
16.10.2019 21:02 13,9 C 12,2 C 12,2 C 96 % 1009,0 hPa 0,0 l/m 0 min 0 min 0 W/m 12,9 km/h (3 Bft) 100,00 %
16.10.2019 21:00 13,9 C 12,2 C 12,2 C 96 % 1009,0 hPa 0,0 l/m 0 min 0 min 0 W/m 6,4 km/h (2 Bft) 100,00 %
16.10.2019 20:58 13,9 C 12,2 C 12,2 C 96 % 1008,9 hPa 0,0 l/m 0 min 0 min 0 W/m 9,7 km/h (2 Bft) 100,00 %
16.10.2019 20:56 13,9 C 12,2 C 12,2 C 96 % 1009,0 hPa 0,0 l/m 0 min 0 min 0 W/m 12,9 km/h (3 Bft) 100,00 %
16.10.2019 20:54 13,9 C 12,2 C 12,2 C 96 % 1008,9 hPa 0,0 l/m 0 min 0 min 0 W/m 6,4 km/h (2 Bft) 100,00 %
16.10.2019 20:52 13,9 C 12,2 C 12,2 C 96 % 1009,0 hPa 0,0 l/m 0 min 0 min 0 W/m 3,2 km/h (1 Bft) 100,00 %
16.10.2019 20:50 13,9 C 12,2 C 12,2 C 96 % 1008,9 hPa 0,0 l/m 0 min 0 min 0 W/m 6,4 km/h (2 Bft) 100,00 %
16.10.2019 20:48 13,9 C 12,2 C 12,2 C 96 % 1008,9 hPa 0,0 l/m 0 min 0 min 0 W/m 12,9 km/h (3 Bft) 97,83 %
16.10.2019 20:46 13,9 C 12,2 C 12,2 C 96 % 1008,9 hPa 0,0 l/m 0 min 0 min 0 W/m 12,9 km/h (3 Bft) 100,00 %
16.10.2019 20:44 13,9 C 12,2 C 12,2 C 96 % 1009,0 hPa 0,0 l/m 0 min 0 min 0 W/m 6,4 km/h (2 Bft) 97,87 %
16.10.2019 20:42 13,9 C 12,2 C 11,7 C 96 % 1008,9 hPa 0,0 l/m 0 min 0 min 0 W/m 12,9 km/h (3 Bft) 97,87 %
16.10.2019 20:40 13,9 C 12,2 C 11,7 C 96 % 1008,9 hPa 0,0 l/m 0 min 0 min 0 W/m 6,4 km/h (2 Bft) 97,87 %
16.10.2019 20:38 13,9 C 12,2 C 11,7 C 95 % 1008,9 hPa 0,0 l/m 0 min 0 min 0 W/m 6,4 km/h (2 Bft) 97,87 %
16.10.2019 20:36 14,0 C 12,2 C 11,7 C 95 % 1008,9 hPa 0,0 l/m 0 min 0 min 0 W/m 12,9 km/h (3 Bft) 97,83 %
16.10.2019 20:34 14,0 C 12,2 C 12,2 C 95 % 1008,9 hPa 0,0 l/m 0 min 2 min 0 W/m 9,7 km/h (2 Bft) 97,87 %
16.10.2019 20:32 14,0 C 12,2 C 12,2 C 95 % 1009,0 hPa 0,0 l/m 0 min 2 min 0 W/m 12,9 km/h (3 Bft) 95,74 %
16.10.2019 20:30 14,1 C 12,2 C 11,7 C 95 % 1009,0 hPa 0,2 l/m 0 min 2 min 0 W/m 6,4 km/h (2 Bft) 95,74 %
16.10.2019 20:28 14,0 C 12,2 C 11,7 C 95 % 1009,0 hPa 0,0 l/m 0 min 2 min 0 W/m 19,3 km/h (3 Bft) 97,87 %
16.10.2019 20:26 14,1 C 12,2 C 11,7 C 95 % 1009,0 hPa 0,0 l/m 0 min 2 min 0 W/m 12,9 km/h (3 Bft) 97,87 %
16.10.2019 20:24 14,1 C 12,2 C 11,7 C 95 % 1009,0 hPa 0,0 l/m 0 min 2 min 0 W/m 12,9 km/h (3 Bft) 95,65 %
16.10.2019 20:22 14,1 C 12,2 C 12,2 C 95 % 1009,1 hPa 0,0 l/m 0 min 2 min 0 W/m 6,4 km/h (2 Bft) 93,62 %
16.10.2019 20:20 14,1 C 12,2 C 12,2 C 95 % 1009,0 hPa 0,0 l/m 0 min 0 min 0 W/m 12,9 km/h (3 Bft) 93,62 %
16.10.2019 20:18 14,1 C 12,2 C 12,2 C 95 % 1009,0 hPa 0,0 l/m 0 min 0 min 0 W/m 0,0 km/h (0 Bft) 95,74 %
16.10.2019 20:16 14,1 C 12,2 C 12,2 C 95 % 1009,0 hPa 0,0 l/m 0 min 2 min 0 W/m 6,4 km/h (2 Bft) 95,74 %
16.10.2019 20:14 14,1 C 12,2 C 12,2 C 95 % 1009,0 hPa 0,0 l/m 0 min 2 min 0 W/m 12,9 km/h (3 Bft) 95,74 %
16.10.2019 20:12 14,1 C 12,2 C 12,2 C 95 % 1009,0 hPa 0,0 l/m 0 min 0 min 0 W/m 3,2 km/h (1 Bft) 93,48 %
16.10.2019 20:10 14,1 C 12,2 C 12,2 C 95 % 1009,0 hPa 0,0 l/m 0 min 0 min 0 W/m 6,4 km/h (2 Bft) 95,74 %
16.10.2019 20:08 14,2 C 12,2 C 11,7 C 94 % 1009,0 hPa 0,0 l/m 0 min 0 min 0 W/m 6,4 km/h (2 Bft) 93,62 %
16.10.2019 20:06 14,2 C 12,2 C 11,7 C 94 % 1009,0 hPa 0,0 l/m 0 min 0 min 0 W/m 12,9 km/h (3 Bft) 97,87 %
16.10.2019 20:04 14,2 C 12,2 C 11,7 C 94 % 1009,0 hPa 0,0 l/m 0 min 2 min 0 W/m 12,9 km/h (3 Bft) 95,74 %
16.10.2019 20:02 14,2 C 12,2 C 11,7 C 94 % 1009,0 hPa 0,0 l/m 0 min 2 min 0 W/m 19,3 km/h (3 Bft) 93,62 %
16.10.2019 20:00 14,3 C 12,2 C 11,7 C 94 % 1009,1 hPa 0,2 l/m 0 min 2 min 0 W/m 16,1 km/h (3 Bft) 95,65 %
16.10.2019 19:58 14,3 C 12,2 C 12,2 C 94 % 1009,0 hPa 0,0 l/m 0 min 2 min 0 W/m 19,3 km/h (3 Bft) 95,74 %
16.10.2019 19:56 14,3 C 12,2 C 12,2 C 94 % 1009,1 hPa 0,0 l/m 0 min 0 min 0 W/m 12,9 km/h (3 Bft) 93,62 %
16.10.2019 19:54 14,3 C 12,2 C 12,2 C 94 % 1009,1 hPa 0,0 l/m 0 min 0 min 0 W/m 16,1 km/h (3 Bft) 95,74 %
16.10.2019 19:52 14,3 C 12,2 C 12,2 C 94 % 1009,1 hPa 0,0 l/m 0 min 0 min 0 W/m 16,1 km/h (3 Bft) 93,62 %
16.10.2019 19:50 14,3 C 12,2 C 11,7 C 94 % 1009,0 hPa 0,0 l/m 0 min 0 min 0 W/m 6,4 km/h (2 Bft) 95,65 %
16.10.2019 19:48 14,3 C 12,2 C 11,7 C 94 % 1009,1 hPa 0,0 l/m 0 min 0 min 0 W/m 16,1 km/h (3 Bft) 93,62 %
16.10.2019 19:46 14,3 C 12,2 C 11,7 C 93 % 1009,0 hPa 0,0 l/m 0 min 0 min 0 W/m 12,9 km/h (3 Bft) 95,74 %
16.10.2019 19:44 14,3 C 12,2 C 11,7 C 93 % 1009,1 hPa 0,0 l/m 0 min 0 min 0 W/m 6,4 km/h (2 Bft) 95,74 %
16.10.2019 19:42 14,3 C 12,2 C 11,7 C 93 % 1009,0 hPa 0,0 l/m 0 min 0 min 0 W/m 12,9 km/h (3 Bft) 97,87 %
16.10.2019 19:40 14,3 C 12,2 C 11,7 C 93 % 1009,1 hPa 0,0 l/m 0 min 2 min 0 W/m 19,3 km/h (3 Bft) 97,87 %
16.10.2019 19:38 14,4 C 12,2 C 11,7 C 93 % 1009,1 hPa 0,0 l/m 0 min 2 min 0 W/m 16,1 km/h (3 Bft) 100,00 %
16.10.2019 19:36 14,4 C 12,2 C 11,7 C 93 % 1009,0 hPa 0,0 l/m 0 min 2 min 0 W/m 16,1 km/h (3 Bft) 100,00 %
16.10.2019 19:34 14,4 C 12,2 C 12,2 C 92 % 1009,1 hPa 0,0 l/m 0 min 2 min 0 W/m 19,3 km/h (3 Bft) 97,87 %
16.10.2019 19:32 14,4 C 12,2 C 12,2 C 92 % 1009,1 hPa 0,0 l/m 0 min 0 min 0 W/m 19,3 km/h (3 Bft) 97,83 %
16.10.2019 19:30 14,5 C 12,2 C 12,2 C 92 % 1009,1 hPa 0,2 l/m 0 min 0 min 0 W/m 16,1 km/h (3 Bft) 100,00 %
16.10.2019 19:28 14,6 C 12,2 C 12,2 C 92 % 1009,1 hPa 0,0 l/m 0 min 0 min 0 W/m 16,1 km/h (3 Bft) 100,00 %
16.10.2019 19:26 14,6 C 12,8 C 12,2 C 92 % 1009,1 hPa 0,0 l/m 0 min 2 min 0 W/m 6,4 km/h (2 Bft) 97,87 %
16.10.2019 19:24 14,6 C 12,8 C 12,2 C 92 % 1009,1 hPa 0,0 l/m 0 min 2 min 0 W/m 16,1 km/h (3 Bft) 95,74 %
16.10.2019 19:22 14,6 C 12,8 C 12,2 C 92 % 1009,0 hPa 0,0 l/m 0 min 2 min 0 W/m 12,9 km/h (3 Bft) 51,11 %
16.10.2019 19:20 14,6 C 12,8 C 12,2 C 92 % 1009,0 hPa 0,0 l/m 0 min 0 min 0 W/m 16,1 km/h (3 Bft) 97,83 %
16.10.2019 19:18 14,6 C 13,3 C 12,2 C 92 % 1009,1 hPa 0,0 l/m 0 min 0 min 0 W/m 22,5 km/h (4 Bft) 97,87 %
16.10.2019 19:16 14,6 C 13,3 C 12,2 C 92 % 1009,0 hPa 0,0 l/m 0 min 0 min 0 W/m 12,9 km/h (3 Bft) 97,87 %
16.10.2019 19:14 14,6 C 13,3 C 12,2 C 92 % 1009,0 hPa 0,0 l/m 0 min 0 min 0 W/m 12,9 km/h (3 Bft) 95,74 %
16.10.2019 19:12 14,6 C 13,3 C 12,2 C 92 % 1009,0 hPa 0,0 l/m 0 min 0 min 0 W/m 12,9 km/h (3 Bft) 95,74 %
16.10.2019 19:10 14,6 C 13,3 C 12,2 C 92 % 1009,0 hPa 0,0 l/m 0 min 0 min 0 W/m 16,1 km/h (3 Bft) 97,87 %
16.10.2019 19:08 14,6 C 13,3 C 12,2 C 92 % 1008,9 hPa 0,0 l/m 0 min 0 min 0 W/m 19,3 km/h (3 Bft) 97,83 %
16.10.2019 19:06 14,6 C 13,3 C 12,2 C 92 % 1008,9 hPa 0,0 l/m 0 min 0 min 0 W/m 16,1 km/h (3 Bft) 97,87 %
16.10.2019 19:04 14,6 C 13,3 C 12,2 C 92 % 1008,9 hPa 0,0 l/m 0 min 2 min 0 W/m 19,3 km/h (3 Bft) 97,87 %
16.10.2019 19:02 14,6 C 13,3 C 12,2 C 92 % 1008,9 hPa 0,0 l/m 0 min 0 min 0 W/m 6,4 km/h (2 Bft) 97,87 %
16.10.2019 19:00 14,6 C 13,3 C 12,2 C 92 % 1008,9 hPa 0,0 l/m 0 min 0 min 0 W/m 19,3 km/h (3 Bft) 97,87 %
16.10.2019 18:58 14,6 C 13,3 C 12,2 C 92 % 1008,9 hPa 0,0 l/m 0 min 0 min 0 W/m 12,9 km/h (3 Bft) 97,83 %
16.10.2019 18:56 14,6 C 13,3 C 12,2 C 92 % 1008,9 hPa 0,0 l/m 0 min 0 min 0 W/m 16,1 km/h (3 Bft) 95,74 %
16.10.2019 18:54 14,6 C 13,3 C 12,2 C 92 % 1008,9 hPa 0,0 l/m 0 min 0 min 0 W/m 19,3 km/h (3 Bft) 97,87 %
16.10.2019 18:52 14,6 C 13,3 C 12,2 C 92 % 1008,9 hPa 0,0 l/m 0 min 0 min 0 W/m 22,5 km/h (4 Bft) 97,87 %
16.10.2019 18:50 14,6 C 13,3 C 12,2 C 92 % 1009,0 hPa 0,0 l/m 0 min 0 min 0 W/m 29,0 km/h (5 Bft) 97,87 %
16.10.2019 18:48 14,6 C 13,3 C 12,2 C 92 % 1009,0 hPa 0,0 l/m 0 min 0 min 0 W/m 22,5 km/h (4 Bft) 97,87 %
16.10.2019 18:46 14,6 C 13,3 C 12,2 C 92 % 1008,9 hPa 0,0 l/m 0 min 0 min 0 W/m 19,3 km/h (3 Bft) 97,83 %
16.10.2019 18:44 14,6 C 13,3 C 12,2 C 92 % 1008,9 hPa 0,0 l/m 0 min 0 min 0 W/m 22,5 km/h (4 Bft) 97,87 %
16.10.2019 18:42 14,6 C 13,3 C 12,2 C 92 % 1008,9 hPa 0,0 l/m 0 min 0 min 0 W/m 9,7 km/h (2 Bft) 97,87 %
16.10.2019 18:40 14,6 C 13,3 C 12,2 C 92 % 1008,8 hPa 0,0 l/m 0 min 0 min 0 W/m 16,1 km/h (3 Bft) 97,87 %
16.10.2019 18:38 14,6 C 13,3 C 12,2 C 92 % 1008,8 hPa 0,0 l/m 0 min 0 min 0 W/m 16,1 km/h (3 Bft) 97,87 %
16.10.2019 18:36 14,6 C 12,8 C 12,2 C 92 % 1008,8 hPa 0,0 l/m 0 min 0 min 0 W/m 6,4 km/h (2 Bft) 100,00 %
16.10.2019 18:34 14,6 C 12,8 C 12,2 C 92 % 1008,9 hPa 0,0 l/m 0 min 2 min 0 W/m 22,5 km/h (4 Bft) 100,00 %
16.10.2019 18:32 14,6 C 12,8 C 12,2 C 92 % 1008,9 hPa 0,0 l/m 0 min 2 min 0 W/m 19,3 km/h (3 Bft) 100,00 %
16.10.2019 18:30 14,6 C 12,8 C 12,2 C 92 % 1008,9 hPa 0,0 l/m 0 min 2 min 0 W/m 22,5 km/h (4 Bft) 100,00 %
16.10.2019 18:28 14,6 C 12,8 C 12,2 C 92 % 1008,8 hPa 0,0 l/m 0 min 0 min 0 W/m 16,1 km/h (3 Bft) 100,00 %
16.10.2019 18:26 14,6 C 12,8 C 12,2 C 92 % 1008,9 hPa 0,0 l/m 0 min 2 min 0 W/m 22,5 km/h (4 Bft) 100,00 %
16.10.2019 18:24 14,6 C 12,8 C 12,2 C 92 % 1008,9 hPa 0,0 l/m 0 min 2 min 0 W/m 12,9 km/h (3 Bft) 100,00 %
16.10.2019 18:22 14,6 C 12,8 C 12,2 C 92 % 1008,8 hPa 0,0 l/m 0 min 2 min 0 W/m 19,3 km/h (3 Bft) 97,83 %
16.10.2019 18:20 14,6 C 12,8 C 12,2 C 92 % 1008,9 hPa 0,0 l/m 0 min 2 min 0 W/m 19,3 km/h (3 Bft) 100,00 %
16.10.2019 18:18 14,6 C 12,8 C 12,2 C 92 % 1008,9 hPa 0,0 l/m 0 min 2 min 0 W/m 16,1 km/h (3 Bft) 100,00 %
16.10.2019 18:16 14,6 C 12,8 C 12,2 C 92 % 1008,9 hPa 0,0 l/m 0 min 2 min 0 W/m 19,3 km/h (3 Bft) 100,00 %
16.10.2019 18:14 14,6 C 13,3 C 12,2 C 92 % 1008,9 hPa 0,0 l/m 0 min 0 min 0 W/m 19,3 km/h (3 Bft) 100,00 %
16.10.2019 18:12 14,6 C 13,3 C 12,2 C 92 % 1008,8 hPa 0,0 l/m 0 min 2 min 0 W/m 22,5 km/h (4 Bft) 100,00 %
16.10.2019 18:10 14,6 C 13,9 C 12,2 C 92 % 1008,9 hPa 0,0 l/m 0 min 0 min 0 W/m 22,5 km/h (4 Bft) 100,00 %
16.10.2019 18:08 14,6 C 13,9 C 12,2 C 92 % 1008,8 hPa 0,0 l/m 0 min 4 min 0 W/m 22,5 km/h (4 Bft) 100,00 %
16.10.2019 18:04 14,5 C 13,9 C 12,2 C 93 % 1008,8 hPa 0,0 l/m 0 min 0 min 0 W/m 19,3 km/h (3 Bft) 100,00 %
16.10.2019 18:02 14,5 C 13,9 C 12,2 C 93 % 1008,8 hPa 0,0 l/m 0 min 0 min 1 W/m 16,1 km/h (3 Bft) 100,00 %
16.10.2019 18:00 14,5 C 13,9 C 12,2 C 93 % 1008,7 hPa 0,0 l/m 0 min 0 min 5 W/m 12,9 km/h (3 Bft) 100,00 %
16.10.2019 17:58 14,4 C 13,9 C 12,2 C 93 % 1008,7 hPa 0,0 l/m 0 min 0 min 5 W/m 12,9 km/h (3 Bft) 100,00 %
16.10.2019 17:56 14,4 C 13,9 C 12,2 C 93 % 1008,7 hPa 0,0 l/m 0 min 0 min 7 W/m 19,3 km/h (3 Bft) 97,87 %
16.10.2019 17:54 14,4 C 13,3 C 12,2 C 93 % 1008,7 hPa 0,0 l/m 0 min 0 min 8 W/m 16,1 km/h (3 Bft) 97,87 %
16.10.2019 17:52 14,4 C 13,3 C 12,2 C 93 % 1008,7 hPa 0,0 l/m 0 min 0 min 9 W/m 6,4 km/h (2 Bft) 100,00 %
16.10.2019 17:50 14,4 C 13,3 C 12,2 C 94 % 1008,7 hPa 0,0 l/m 0 min 0 min 10 W/m 16,1 km/h (3 Bft) 97,87 %
16.10.2019 17:48 14,3 C 13,3 C 12,2 C 94 % 1008,7 hPa 0,0 l/m 0 min 0 min 11 W/m 19,3 km/h (3 Bft) 100,00 %
16.10.2019 17:46 14,3 C 13,3 C 12,2 C 94 % 1008,7 hPa 0,0 l/m 0 min 2 min 12 W/m 19,3 km/h (3 Bft) 100,00 %
16.10.2019 17:44 14,3 C 13,3 C 12,2 C 94 % 1008,7 hPa 0,0 l/m 0 min 2 min 12 W/m 12,9 km/h (3 Bft) 97,87 %
16.10.2019 17:42 14,3 C 13,3 C 12,2 C 94 % 1008,7 hPa 0,0 l/m 0 min 0 min 12 W/m 22,5 km/h (4 Bft) 100,00 %
16.10.2019 17:40 14,3 C 13,3 C 12,2 C 94 % 1008,7 hPa 0,0 l/m 0 min 0 min 13 W/m 12,9 km/h (3 Bft) 100,00 %
16.10.2019 17:38 14,3 C 13,3 C 12,2 C 94 % 1008,7 hPa 0,0 l/m 0 min 0 min 14 W/m 12,9 km/h (3 Bft) 100,00 %
16.10.2019 17:36 14,3 C 13,3 C 12,2 C 94 % 1008,7 hPa 0,0 l/m 0 min 0 min 14 W/m 16,1 km/h (3 Bft) 100,00 %
16.10.2019 17:34 14,3 C 13,3 C 12,2 C 95 % 1008,7 hPa 0,0 l/m 0 min 0 min 14 W/m 6,4 km/h (2 Bft) 95,74 %
16.10.2019 17:32 14,3 C 13,3 C 12,2 C 95 % 1008,7 hPa 0,0 l/m 0 min 0 min 16 W/m 19,3 km/h (3 Bft) 97,87 %
16.10.2019 17:30 14,3 C 13,3 C 12,2 C 95 % 1008,7 hPa 0,0 l/m 0 min 0 min 17 W/m 16,1 km/h (3 Bft) 97,87 %
16.10.2019 17:28 14,3 C 13,3 C 12,2 C 95 % 1008,8 hPa 0,0 l/m 0 min 0 min 15 W/m 12,9 km/h (3 Bft) 97,87 %
16.10.2019 17:26 14,3 C 13,3 C 12,2 C 95 % 1008,8 hPa 0,0 l/m 0 min 0 min 16 W/m 16,1 km/h (3 Bft) 97,87 %
16.10.2019 17:24 14,3 C 13,3 C 12,2 C 96 % 1008,8 hPa 0,0 l/m 0 min 0 min 18 W/m 19,3 km/h (3 Bft) 95,65 %
16.10.2019 17:22 14,2 C 13,3 C 12,2 C 96 % 1008,8 hPa 0,0 l/m 0 min 0 min 20 W/m 16,1 km/h (3 Bft) 97,87 %
16.10.2019 17:20 14,1 C 13,3 C 12,2 C 96 % 1008,8 hPa 0,0 l/m 0 min 0 min 24 W/m 16,1 km/h (3 Bft) 97,87 %
16.10.2019 17:18 14,1 C 13,3 C 12,2 C 96 % 1008,8 hPa 0,0 l/m 0 min 0 min 26 W/m 29,0 km/h (5 Bft) 97,87 %
16.10.2019 17:16 14,1 C 13,3 C 12,2 C 96 % 1008,8 hPa 0,0 l/m 0 min 0 min 28 W/m 32,2 km/h (5 Bft) 95,74 %
16.10.2019 17:14 14,1 C 13,3 C 12,2 C 96 % 1008,8 hPa 0,0 l/m 0 min 0 min 33 W/m 19,3 km/h (3 Bft) 93,62 %
16.10.2019 17:12 14,0 C 13,3 C 12,8 C 97 % 1008,8 hPa 0,0 l/m 0 min 0 min 37 W/m 19,3 km/h (3 Bft) 95,65 %
16.10.2019 17:10 14,0 C 13,3 C 12,8 C 97 % 1008,8 hPa 0,0 l/m 0 min 0 min 46 W/m 16,1 km/h (3 Bft) 95,74 %
16.10.2019 17:08 13,9 C 13,3 C 12,8 C 97 % 1008,8 hPa 0,0 l/m 0 min 0 min 46 W/m 25,7 km/h (4 Bft) 93,62 %
16.10.2019 17:06 13,9 C 13,3 C 12,2 C 97 % 1008,8 hPa 0,0 l/m 0 min 0 min 47 W/m 19,3 km/h (3 Bft) 93,62 %
16.10.2019 17:04 13,9 C 13,3 C 12,2 C 97 % 1008,8 hPa 0,0 l/m 0 min 0 min 53 W/m 16,1 km/h (3 Bft) 95,74 %
16.10.2019 17:02 13,8 C 13,3 C 12,2 C 97 % 1008,8 hPa 0,0 l/m 0 min 0 min 49 W/m 16,1 km/h (3 Bft) 95,74 %
16.10.2019 17:00 13,8 C 13,3 C 12,2 C 97 % 1008,9 hPa 0,0 l/m 0 min 0 min 42 W/m 19,3 km/h (3 Bft) 95,65 %
_ Min-Zeit 02:28 19:28 19:36 13:48 03:06 - - - - 20:18 22:46
Minimum _ 13,4 C 12,2 C 11,7 C 81 % 1008,5 hPa - - - - 0,0 km/h (0 Bft) 50,00 %
_ Max-Zeit 13:20 12:58 13:20 02:08 12:00 19:30 12:08 18:08 12:56 04:10 17:36
Maximum _ 16,6 C 23,3 C 15,0 C 98 % 1011,9 hPa 0,2 l/m 4 min 4 min 622 W/m 35,4 km/h
S-SO (5 Bft)
100,00 %
Durchschnitt _ 14,4 C 13,5 C 12,5 C 95 % 1009,5 hPa #2,6 l/m #1:44 h #2:40 h 156 W/m 15,4 km/h (3 Bft) 97,15 %
© 2019 W. Hausmann